ECMWFFLT1_sfc_temp_000.txt.gz
Temp
45 45 46 45 44 43 43 45 45 44 43 43 44 44 44 42 42 41 41 41 40 40 40 39 38 38 37 36 36 36 35 33 33 32 32 31 31 31 30 29 29 28 28 27 27 27 27 27 27 27 26 26 26 26 26 26 26 26 26 27 27 28
46 46 45 45 45 44 43 43 42 42 42 42 43 42 40 39 40 40 40 40 40 39 38 38 37 37 36 35 35 34 34 33 32 31 31 31 31 30 29 29 28 28 27 27 27 27 26 26 26 26 25 25 25 25 25 25 25 25 25 25 27 27
44 43 44 44 41 42 41 42 43 43 42 42 42 42 41 40 40 40 40 39 39 38 37 37 36 36 35 35 34 34 33 32 32 32 31 31 30 30 29 28 28 28 27 27 27 26 26 25 25 25 25 24 24 24 24 24 24 23 24 24 24 25
41 39 39 39 40 41 42 42 41 40 41 42 42 42 41 40 39 39 39 39 38 37 37 36 35 35 35 34 33 33 32 32 31 31 30 30 29 29 29 28 28 27 27 26 25 25 25 25 24 24 24 23 23 23 25 23 22 22 22 22 22 22
45 46 45 44 44 43 42 40 41 41 40 40 41 41 41 41 40 39 39 38 37 36 36 35 34 34 33 33 32 32 31 31 31 31 30 29 29 28 28 28 27 26 26 25 25 24 24 24 23 23 23 22 22 22 22 22 20 20 20 19 20 20
45 43 42 43 42 42 42 42 41 41 40 41 41 40 40 39 39 39 38 37 36 36 35 34 34 33 33 32 32 31 31 31 30 30 29 29 28 27 27 27 26 26 25 25 24 24 24 23 23 22 22 22 21 20 20 20 20 19 19 18 18 19
43 44 44 44 44 43 42 42 41 41 41 40 40 40 39 39 38 38 38 37 35 35 34 34 33 32 32 32 31 31 30 30 30 29 28 28 27 27 26 26 26 25 25 24 23 23 22 22 22 22 21 20 20 19 19 19 19 18 18 18 18 20
46 45 43 43 43 43 43 43 42 41 40 40 40 39 38 38 38 38 37 36 35 35 34 33 33 32 32 31 31 30 30 30 29 28 28 28 27 26 26 26 25 25 24 23 22 22 21 21 20 20 19 19 19 19 19 18 18 18 17 18 19 18
43 44 44 45 44 43 43 42 41 40 40 39 39 40 39 38 37 37 36 35 35 34 34 33 33 32 32 31 31 31 30 29 28 28 27 27 26 25 24 24 23 23 22 22 21 21 20 20 19 18 18 18 18 18 18 17 17 17 18 19 19 19
45 44 44 43 42 42 41 41 41 41 40 39 39 39 39 38 37 36 36 35 35 34 34 34 33 32 32 31 31 30 29 28 27 26 26 25 24 23 23 22 22 21 21 20 20 20 19 19 18 18 18 18 18 18 18 17 17 18 18 18 19 19
45 45 45 44 43 42 42 42 41 40 39 39 39 39 38 38 36 36 35 35 34 34 34 33 32 32 31 30 29 28 27 26 25 24 23 22 21 21 20 21 20 20 20 20 20 20 20 19 19 19 18 18 18 17 16 17 17 18 18 18 18 19
46 47 46 45 43 44 43 42 41 40 39 39 39 38 38 36 36 35 35 34 34 34 33 32 31 31 30 29 27 26 25 24 22 21 20 19 19 19 20 20 19 19 19 19 20 20 19 19 19 20 22 22 18 17 18 18 18 18 18 18 18 19
48 47 46 46 45 45 44 43 42 40 39 38 38 38 36 36 35 34 34 33 33 32 31 30 29 29 27 26 25 23 22 21 19 18 17 16 16 17 17 17 17 17 18 18 18 18 19 19 19 22 24 25 25 22 19 19 18 19 19 18 18 18
48 48 48 47 46 45 44 42 40 39 39 38 37 37 35 35 34 33 33 32 31 30 30 29 27 26 24 23 21 20 19 18 17 16 15 15 15 15 16 16 17 17 18 18 18 18 19 19 21 23 24 25 24 24 21 20 19 19 20 20 19 19
52 50 48 48 47 45 44 43 40 39 39 38 37 35 34 33 33 32 31 30 30 29 28 26 25 23 21 21 20 18 17 16 16 15 14 14 15 15 15 16 16 16 18 18 18 18 19 19 21 23 24 24 24 24 23 21 21 20 19 20 20 20
50 50 50 49 48 47 46 43 42 41 39 37 35 34 33 32 32 31 30 28 28 27 26 24 23 21 20 18 17 16 15 14 14 14 14 15 15 15 15 15 15 17 17 18 18 18 18 18 21 23 24 23 24 24 24 22 21 21 20 20 20 20
49 48 45 45 46 44 41 40 39 37 36 35 33 33 32 31 30 29 28 26 26 25 24 23 21 19 17 15 15 14 13 13 13 13 14 14 14 14 14 14 15 16 16 17 17 17 17 17 20 22 23 23 24 24 24 22 21 20 19 20 20 20
50 47 47 42 41 40 42 41 38 36 34 33 32 30 30 29 28 28 26 25 24 23 23 21 18 16 14 14 13 13 13 13 13 13 14 14 14 15 15 15 15 15 15 16 15 15 14 16 20 21 22 23 23 24 22 21 19 19 19 19 20 21
45 46 40 39 42 41 40 38 36 34 31 29 29 28 28 28 27 26 26 24 23 23 22 20 17 15 13 13 13 12 12 12 12 13 14 13 14 14 14 14 15 15 14 14 14 13 13 14 17 20 21 22 23 22 20 20 19 19 19 19 20 21
41 39 42 40 39 40 38 36 34 31 30 28 27 27 27 26 26 26 25 24 23 22 20 18 16 15 13 12 12 12 13 13 13 13 14 13 13 13 13 14 13 14 14 13 13 14 12 13 16 19 20 22 23 23 20 20 19 18 19 19 21 21
42 40 38 38 38 36 35 34 32 30 28 27 26 27 26 26 26 25 24 23 22 21 19 17 16 15 13 12 13 13 12 12 12 13 13 13 14 13 13 13 12 12 13 14 13 15 14 13 14 18 20 22 23 22 20 20 19 18 18 19 20 22
39 37 38 38 38 34 33 32 31 29 27 26 26 25 25 26 26 25 23 22 21 20 19 18 17 15 14 13 12 12 12 13 12 12 12 12 12 12 12 12 12 11 11 13 12 12 14 14 14 16 20 21 22 23 21 20 18 17 18 19 20 19
42 41 39 37 35 32 31 30 29 27 26 25 25 25 26 26 25 23 21 21 19 18 18 17 17 15 14 13 12 12 11 12 12 11 11 11 11 11 12 11 11 10 10 11 12 13 14 15 14 15 20 21 22 23 22 19 19 19 19 19 19 19
36 34 33 32 32 31 30 29 28 27 25 24 24 25 26 25 23 22 20 18 17 16 15 15 15 14 12 11 11 10 10 11 11 11 10 10 11 10 9 9 9 9 10 12 13 14 14 17 19 17 19 21 21 22 23 21 21 22 20 19 18 18
33 34 31 30 29 29 29 29 28 26 24 24 25 25 24 23 21 19 18 17 16 14 13 12 12 11 10 10 11 10 10 10 9 9 9 10 9 8 7 8 9 9 10 12 13 14 16 17 17 19 18 20 21 22 23 24 23 25 22 19 17 17
32 31 28 27 27 28 28 28 27 25 24 25 24 23 22 20 19 17 16 15 13 12 11 10 10 9 9 9 10 9 8 8 8 8 8 9 8 7 7 8 9 10 10 10 12 15 15 16 16 17 19 19 21 22 23 24 24 24 21 20 17 17
32 29 25 24 25 26 26 27 28 26 25 25 23 22 20 18 17 15 14 13 11 10 9 9 8 8 9 9 10 8 7 7 7 6 8 8 8 8 8 10 10 9 10 11 12 13 14 15 15 15 17 20 21 22 23 23 23 23 23 19 17 18
28 27 26 22 23 24 25 26 28 26 26 23 22 21 20 17 16 14 13 11 10 8 7 6 7 7 8 9 10 9 8 7 7 8 7 8 9 10 10 10 10 10 11 11 12 12 13 14 14 15 16 18 20 20 21 22 22 21 22 21 18 20
28 28 27 26 23 23 23 24 25 25 23 21 21 20 18 16 15 13 12 10 8 7 6 6 5 6 7 8 9 9 8 9 9 9 8 8 9 10 10 10 10 10 11 10 11 11 13 13 13 14 15 17 17 18 19 19 19 20 20 18 17 18
28 29 27 27 26 23 23 23 24 22 20 20 20 18 17 15 14 12 10 9 7 6 7 6 8 7 6 7 8 8 8 10 11 9 9 9 10 9 9 10 10 11 11 10 11 11 11 11 12 13 14 16 18 18 19 19 18 17 16 16 17 15
28 28 27 28 26 22 22 22 23 20 18 19 17 17 15 14 13 11 9 8 7 7 7 6 6 6 7 7 8 8 9 9 10 11 11 13 13 12 11 11 12 12 12 12 11 10 10 11 12 13 19 19 21 19 18 17 17 16 16 18 20 12
29 28 27 28 25 22 22 21 21 18 18 17 16 16 15 13 11 10 8 8 7 7 6 5 5 6 7 7 7 7 9 14 16 14 11 11 16 18 19 17 13 13 13 12 13 14 11 11 14 20 21 20 20 21 21 20 20 20 18 19 18 12
28 28 27 28 25 23 22 21 21 17 17 16 16 16 15 13 11 9 8 8 7 7 6 6 6 7 7 7 7 6 7 9 13 17 17 17 18 19 20 20 20 20 18 15 12 16 19 19 20 20 20 20 20 20 20 20 19 19 19 18 11 2
26 26 27 28 26 23 21 21 20 16 16 15 15 15 15 13 12 10 8 8 8 8 7 7 7 6 6 7 7 6 7 8 8 11 17 19 19 20 20 20 20 20 20 19 17 14 14 18 19 19 19 19 19 19 19 18 18 18 18 15 13 -1
30 29 28 28 25 22 20 19 18 16 15 15 15 15 14 13 12 11 9 9 8 7 7 7 6 6 6 6 6 7 8 8 8 8 10 15 20 20 20 20 20 20 20 20 20 20 18 18 19 19 18 18 18 18 17 16 16 16 16 12 1 -4
32 31 29 26 24 22 19 19 18 15 15 15 15 15 15 13 13 12 10 9 8 7 7 7 7 7 7 7 8 8 8 8 9 10 10 9 10 14 17 19 20 20 20 20 19 19 19 19 18 18 18 17 17 16 15 13 9 13 13 9 -2 -3
32 30 28 26 22 20 19 19 19 16 14 14 14 14 14 13 13 12 12 12 10 8 8 8 8 7 7 8 9 9 9 9 9 9 8 8 9 9 7 6 8 15 17 14 16 18 18 18 18 17 17 16 15 14 12 8 -1 -2 -2 -1 -3 -3
30 29 28 24 22 20 19 18 17 13 13 13 13 14 13 13 13 12 10 9 9 9 9 7 7 7 8 8 9 9 9 8 8 7 7 7 8 7 4 2 2 2 12 16 15 17 17 17 17 16 15 13 12 10 8 -5 -6 -7 -6 -5 -5 -5

ECMWFFLT1_sfc_temp_003.txt.gz
Temp
43 43 44 44 44 43 44 44 44 44 44 44 45 45 45 45 44 43 43 43 43 42 42 42 41 41 40 39 38 38 37 37 36 35 35 34 33 33 32 31 30 30 29 29 28 28 27 27 27 27 26 26 26 25 25 25 25 25 25 26 25 26
43 44 44 43 43 43 43 42 42 42 44 43 43 44 43 41 42 42 42 42 42 42 41 41 41 40 39 38 37 37 37 37 35 35 33 33 33 32 32 31 30 29 28 28 28 27 27 26 26 26 26 25 25 25 25 24 24 24 24 24 25 26
43 42 42 42 40 40 39 40 42 43 42 42 43 43 42 42 43 42 42 41 41 40 40 40 39 39 38 37 37 37 37 36 35 35 34 33 32 31 31 30 29 29 28 27 27 27 26 26 26 26 25 25 24 24 23 23 23 23 23 23 23 23
43 40 37 37 39 40 41 41 41 41 41 43 43 42 42 43 43 42 42 41 41 40 39 39 38 37 36 36 36 36 36 35 35 34 32 32 31 31 31 30 29 28 28 27 27 26 26 26 25 25 25 24 23 23 24 23 23 22 21 22 21 22
44 44 43 43 43 43 42 40 41 42 42 42 41 41 42 43 44 42 41 40 39 39 38 37 36 35 34 35 35 35 34 34 33 33 32 32 30 30 30 29 29 28 28 27 26 26 25 25 25 24 24 23 23 22 21 22 21 20 20 20 21 21
39 38 39 41 41 41 41 41 42 42 42 42 42 41 42 42 42 40 39 38 38 37 36 36 35 34 34 34 34 34 33 32 32 31 32 31 30 30 29 29 29 28 27 26 26 25 25 24 24 23 23 23 22 21 22 22 21 21 20 20 20 20
40 41 42 43 43 43 43 42 42 42 42 41 41 42 42 42 40 38 38 38 37 35 36 35 34 34 33 34 33 33 32 31 31 31 31 30 29 29 29 28 28 28 27 26 25 25 24 23 23 22 21 21 22 22 22 21 21 21 21 21 20 21
44 43 43 44 44 43 43 43 42 42 42 42 42 42 40 41 39 39 38 37 36 35 35 35 34 34 34 34 33 32 32 31 30 30 30 30 29 28 28 27 27 27 26 25 25 24 23 22 22 21 21 21 21 21 21 21 21 21 20 20 20 19
44 45 46 46 45 44 44 43 42 42 42 41 41 41 41 40 39 38 38 37 37 36 35 35 34 34 34 33 33 32 31 30 30 29 29 29 28 27 26 26 25 25 24 24 23 22 22 22 21 21 21 21 21 21 21 20 20 20 20 20 19 19
48 47 47 46 45 44 43 43 43 43 42 42 41 40 40 40 39 38 38 37 36 36 35 35 35 34 34 33 31 31 30 30 29 29 28 27 27 26 25 24 24 23 23 23 22 22 21 21 20 20 21 21 21 20 20 20 19 19 19 19 19 20
49 49 47 45 44 42 42 42 42 41 41 41 41 40 40 40 38 37 37 36 36 36 35 34 34 33 32 31 30 29 29 29 28 27 27 26 25 25 24 23 22 21 21 21 21 20 21 20 20 20 20 20 20 20 19 19 18 19 18 18 19 20
52 50 48 45 44 43 42 41 41 41 41 41 40 39 40 38 37 37 36 36 36 35 34 33 32 32 31 30 29 29 28 27 26 25 24 24 23 22 22 21 21 21 20 20 20 20 20 20 20 22 25 23 19 19 19 18 18 18 18 18 18 19
51 50 47 46 45 44 44 43 43 42 42 41 40 40 39 38 37 36 36 35 35 34 33 32 31 30 29 29 29 27 26 25 24 23 22 21 20 20 20 21 20 20 20 20 19 19 19 20 20 24 26 26 25 20 18 17 18 18 19 19 18 18
51 50 48 47 47 46 45 44 43 41 41 41 40 39 38 37 36 36 35 35 34 33 32 31 30 29 28 27 27 25 24 23 21 21 20 19 19 19 20 20 20 20 20 20 20 19 19 19 22 25 26 27 27 24 19 19 18 18 19 19 19 20
52 52 51 50 49 47 46 45 43 41 42 41 40 38 35 36 36 35 34 33 32 32 31 29 28 27 26 26 25 24 22 21 21 20 19 19 20 19 18 19 19 19 19 19 19 18 19 19 24 26 27 27 27 28 24 20 20 19 20 20 21 21
52 52 52 52 51 50 49 45 44 45 44 41 36 35 35 35 34 33 32 31 31 30 30 28 27 27 26 25 23 22 21 20 20 20 19 19 18 17 18 18 17 18 18 18 18 18 19 19 24 26 27 27 28 28 27 23 21 21 21 21 21 21
50 50 49 49 48 48 45 42 44 42 38 37 35 35 34 33 33 32 31 30 30 29 28 28 26 25 24 23 21 20 20 20 19 18 17 17 17 17 16 16 16 17 17 18 18 18 18 19 24 26 27 27 27 27 27 23 22 22 21 21 21 21
49 50 50 49 45 44 44 45 42 40 38 36 36 34 33 32 31 31 30 29 29 28 28 27 26 24 22 21 20 20 20 19 18 16 16 16 16 16 16 16 17 16 17 18 17 17 17 19 24 25 26 26 26 27 24 22 21 20 19 19 20 21
49 49 48 45 44 43 42 41 38 38 34 33 33 32 32 31 30 30 30 29 29 28 27 27 25 23 21 20 19 19 19 18 16 16 16 15 16 15 15 14 15 16 16 16 16 16 15 17 22 25 25 25 26 25 21 21 20 19 19 19 20 21
46 44 44 45 42 43 39 37 37 35 33 32 31 30 30 30 30 30 29 29 28 27 27 26 24 22 20 19 18 18 18 17 17 16 16 15 14 14 14 14 14 15 16 15 15 16 15 15 20 23 24 24 25 24 20 20 19 18 19 19 21 21
38 38 37 38 39 35 33 33 34 33 31 30 30 30 29 29 30 29 28 29 28 27 26 25 23 21 19 18 19 18 17 16 15 15 15 14 14 14 14 13 13 14 14 15 15 18 15 14 18 22 22 23 24 23 21 20 18 17 18 19 19 21
37 36 35 34 32 29 30 30 31 31 30 29 28 28 28 29 30 30 29 27 26 25 24 23 22 21 19 18 18 17 17 16 14 13 14 14 14 13 13 13 12 11 12 14 14 16 16 14 14 18 22 23 24 25 21 19 18 17 17 18 19 18
34 35 35 33 31 28 27 28 29 29 27 27 27 28 30 29 28 26 26 26 24 23 23 22 21 20 19 19 18 17 15 15 14 13 13 12 12 12 11 11 11 11 12 13 14 14 15 15 14 17 22 23 24 25 23 19 18 18 18 18 19 19
41 34 30 28 28 27 27 28 28 25 25 24 26 29 25 25 25 24 23 23 22 21 20 20 20 19 18 17 16 15 14 14 13 13 12 12 12 11 10 10 10 10 11 12 13 13 13 16 17 16 21 22 24 24 25 20 19 20 19 19 19 19
38 36 29 27 25 26 27 27 27 26 24 26 28 24 23 23 23 22 22 21 20 19 18 18 18 17 16 15 15 14 13 12 11 11 11 11 10 10 10 10 10 10 10 11 12 13 14 15 18 20 18 22 23 23 24 24 23 25 22 19 17 18
34 33 28 24 24 25 27 28 28 26 25 28 24 22 22 22 22 21 20 19 18 17 17 17 16 16 15 14 13 13 11 10 10 10 10 10 10 9 9 9 10 10 10 10 11 13 14 16 16 20 20 20 22 23 24 24 25 25 22 21 19 19
37 35 28 24 24 24 26 28 29 27 26 27 23 24 22 21 20 20 19 18 17 16 16 15 15 13 13 13 13 12 11 10 9 9 10 10 10 9 8 9 10 10 10 11 11 12 14 15 15 16 19 21 21 23 24 24 24 24 24 20 18 19
28 27 30 27 21 23 24 25 28 29 31 26 23 23 23 21 20 19 18 17 16 16 15 13 12 12 12 13 13 12 12 10 10 10 10 10 10 9 9 10 10 10 11 11 12 13 13 14 14 14 16 19 21 22 23 23 23 22 22 22 19 21
32 30 28 29 25 22 23 24 25 29 26 22 23 22 20 19 19 18 17 16 16 15 14 13 12 11 11 11 12 11 11 11 11 11 10 10 10 10 10 10 10 11 11 11 12 12 13 13 13 14 15 15 15 17 19 20 19 21 21 18 17 18
32 32 31 30 31 26 24 24 25 26 24 21 22 20 19 19 19 18 17 16 15 13 13 13 11 11 11 11 11 10 10 10 11 11 11 11 11 12 11 10 10 11 11 11 12 11 11 11 12 13 13 14 15 16 18 19 18 18 15 14 17 13
35 34 33 33 34 30 26 25 26 25 24 23 20 19 19 19 18 18 16 15 13 12 12 12 11 11 11 11 10 11 11 10 10 11 13 15 16 16 14 12 13 13 14 13 12 11 10 11 11 13 18 16 19 18 17 17 17 16 16 18 18 9
33 33 34 35 34 31 29 28 27 25 24 22 21 20 19 18 17 17 15 14 13 12 11 11 11 11 11 10 9 9 10 15 17 15 13 13 19 20 21 20 15 15 15 14 14 14 11 11 13 20 22 22 22 23 22 21 21 20 18 19 17 9
34 33 32 33 33 30 29 28 27 24 22 21 21 20 19 18 17 16 15 13 12 12 11 11 11 11 11 10 10 10 9 11 15 20 20 19 21 21 22 21 22 22 20 16 13 16 20 20 22 22 23 23 23 22 22 21 21 20 19 17 9 -1
32 33 32 33 32 30 29 28 26 24 22 21 20 19 19 18 17 16 15 14 13 12 11 11 10 10 9 10 10 10 11 11 11 14 20 22 22 23 23 23 23 22 21 21 18 17 17 21 22 23 23 22 22 21 21 21 20 19 18 14 12 -4
27 28 30 31 31 29 28 27 26 24 21 20 19 19 18 18 17 16 14 13 12 11 11 10 9 9 9 9 9 10 11 11 12 11 13 19 24 24 24 23 23 23 22 22 21 22 20 21 22 23 22 22 21 21 20 19 19 17 15 12 -1 -7
22 22 23 25 27 29 28 26 26 24 21 20 19 19 19 18 18 17 15 13 12 11 10 10 10 10 10 11 11 11 12 13 13 13 14 14 16 18 21 24 24 23 23 22 22 22 22 23 23 22 21 20 20 19 18 16 14 15 13 7 -5 -6
19 20 21 22 23 25 26 27 27 24 21 20 20 19 19 19 18 18 15 12 12 11 11 11 11 11 11 11 11 12 12 13 14 15 14 14 14 14 13 15 18 22 23 20 21 22 23 23 22 21 20 20 18 17 16 13 3 -1 -3 -4 -6 -5
18 19 21 22 23 24 25 27 28 23 20 20 20 19 19 20 19 18 17 14 12 12 12 12 11 12 12 11 12 13 14 14 14 13 14 15 15 14 13 14 15 18 21 23 22 23 23 22 22 20 19 17 16 15 14 -1 -6 -8 -8 -7 -8 -10

ECMWFFLT1_sfc_temp_006.txt.gz
Temp
40 40 40 40 41 42 43 43 43 42 43 43 44 44 45 44 44 43 43 43 43 43 43 43 43 43 42 42 41 39 39 38 38 37 37 35 34 34 33 33 32 32 31 31 30 30 30 30 29 29 28 28 27 26 26 26 26 26 25 25 25 25
40 41 41 41 41 40 39 39 39 41 43 42 42 43 42 41 42 42 42 43 43 43 42 42 42 42 41 40 39 38 38 38 37 36 35 35 34 34 33 33 32 32 31 30 30 30 29 29 29 29 28 27 27 26 25 25 26 25 24 24 25 26
40 40 39 39 37 37 37 39 41 42 40 41 42 42 42 42 43 43 43 43 42 42 42 42 42 41 41 39 38 38 38 37 37 36 36 33 34 33 33 32 32 31 31 30 30 29 29 29 28 28 27 27 26 25 25 25 25 24 23 24 23 24
41 40 37 35 37 38 39 39 39 39 41 43 42 42 42 42 42 43 43 43 43 42 42 41 40 40 39 38 37 38 37 36 36 35 33 34 34 33 33 32 32 31 31 30 29 29 29 29 28 28 27 26 26 25 25 24 24 23 22 22 21 22
42 41 39 39 41 41 39 37 39 41 41 41 41 42 43 43 44 44 43 43 42 42 42 41 39 39 38 38 37 37 37 36 35 34 34 34 33 33 33 33 32 31 30 30 29 29 29 29 28 27 27 26 25 24 23 23 22 22 21 20 20 20
39 40 41 41 41 41 41 41 40 41 41 41 41 41 43 43 44 44 42 42 42 41 40 39 39 37 37 37 38 37 37 36 35 34 34 34 33 32 32 32 31 31 30 30 29 28 27 27 26 26 26 25 24 23 23 22 21 21 21 20 20 20
40 42 42 43 43 43 43 42 41 41 41 41 41 42 43 43 43 42 42 41 41 40 39 38 38 37 37 37 38 37 36 35 34 33 34 33 32 32 31 31 31 30 30 29 28 27 26 26 25 25 24 24 23 23 22 21 21 21 20 20 20 21
42 42 43 43 44 45 44 43 42 42 41 41 42 43 43 43 42 42 41 40 40 39 38 38 37 37 37 37 37 37 36 35 34 33 34 33 32 31 31 30 29 29 29 28 27 26 26 25 25 24 23 23 22 22 22 21 21 20 20 20 20 21
44 46 46 46 46 46 45 43 43 42 42 42 42 43 43 42 41 41 40 40 39 39 38 38 38 38 38 37 38 37 35 34 34 33 33 32 32 31 30 29 29 28 29 27 26 26 25 24 24 23 22 22 22 21 21 21 21 21 20 20 20 20
48 47 47 47 47 47 44 43 43 42 42 42 43 42 42 41 40 40 40 40 39 39 38 38 39 38 38 38 37 35 34 34 33 33 33 32 31 30 30 29 28 28 27 26 26 25 24 24 23 22 22 22 22 22 22 20 20 19 19 18 19 19
51 51 49 48 47 46 45 43 42 42 42 42 42 41 41 41 40 40 40 39 39 39 40 39 38 37 36 35 35 34 33 33 32 32 31 30 30 30 29 29 28 26 25 25 24 23 23 23 23 23 23 22 22 21 20 19 19 19 18 18 18 18
51 53 54 53 50 48 47 44 43 43 42 43 42 41 41 40 40 39 39 39 39 40 39 38 36 35 34 34 33 33 32 31 31 30 29 29 29 28 28 27 26 26 25 23 22 22 23 23 24 25 27 26 21 20 19 18 17 17 18 17 17 18
52 53 53 53 53 51 48 46 46 44 43 43 42 41 41 40 40 39 39 39 40 39 37 36 35 34 33 33 33 31 30 30 29 28 27 27 26 26 26 26 25 24 24 23 22 22 23 23 23 28 29 29 27 21 19 17 17 17 18 18 18 18
52 51 51 53 54 55 53 51 49 45 43 43 42 42 40 39 39 38 38 39 38 37 36 35 33 32 32 31 30 30 29 28 27 27 26 25 25 25 24 24 24 24 23 23 22 22 22 22 26 30 30 30 28 24 19 18 17 17 18 19 19 20
49 51 52 53 55 57 56 55 51 46 44 43 43 41 37 38 38 38 38 37 36 35 35 33 32 31 30 30 29 28 27 26 26 25 24 24 24 23 22 23 23 22 22 22 21 21 22 21 27 30 31 30 29 27 22 18 18 18 18 20 20 20
46 47 49 51 54 56 56 54 49 49 47 43 37 37 37 37 37 37 36 35 35 34 33 32 31 30 30 29 28 27 26 25 25 25 25 24 23 23 23 22 22 22 21 22 21 21 21 20 27 31 31 31 30 28 23 17 18 19 19 20 20 21
43 44 45 46 48 50 52 51 46 46 44 40 38 37 36 36 35 35 35 34 34 33 32 31 30 30 29 28 27 26 26 25 25 25 24 24 23 23 22 22 21 21 21 20 20 19 19 19 27 31 32 31 31 29 24 18 19 20 20 21 22 22
41 41 42 43 44 45 46 46 45 40 40 35 36 34 34 34 34 34 33 33 32 32 32 31 29 29 28 28 26 26 26 25 25 24 24 23 23 23 23 22 22 20 19 19 19 18 17 19 27 31 32 32 32 30 23 21 20 20 21 21 22 22
40 41 40 41 41 41 40 40 39 39 37 33 31 30 29 31 31 32 32 32 32 31 32 31 30 29 27 27 26 25 25 25 24 24 24 22 22 22 21 20 20 20 19 18 17 17 16 17 26 31 32 32 32 30 23 22 21 21 20 21 21 22
41 42 41 40 41 38 34 34 36 36 34 32 29 28 28 29 30 30 31 32 31 31 31 31 30 28 27 26 25 25 25 25 24 24 23 22 21 20 20 19 18 17 17 17 17 17 16 16 25 31 31 31 32 29 22 21 20 19 19 20 21 21
39 40 41 42 41 37 30 30 32 32 31 30 28 27 26 28 29 30 31 32 31 30 29 29 29 29 27 26 25 24 24 24 23 22 21 21 21 20 19 17 16 15 15 16 16 21 18 16 24 31 31 31 31 28 22 21 19 18 19 19 19 20
40 40 40 40 40 34 28 28 30 29 29 28 28 27 28 29 30 29 28 28 27 27 27 28 28 28 26 25 25 24 24 22 20 19 19 18 18 17 16 15 15 14 14 15 15 18 17 16 20 26 31 30 31 29 22 21 19 17 18 18 18 17
39 39 39 40 39 35 31 30 32 32 28 28 28 29 31 29 28 27 27 26 25 25 25 26 27 26 24 24 23 22 20 20 19 18 17 16 15 16 15 15 14 13 13 14 15 16 14 15 18 23 30 30 30 29 24 20 19 19 18 17 17 17
39 39 39 40 39 35 31 30 32 32 26 24 28 32 29 26 25 24 23 24 24 23 23 24 25 24 23 21 21 20 19 18 18 17 16 16 15 14 14 13 13 12 12 12 13 13 13 17 21 20 28 29 29 29 26 20 20 20 18 17 17 18
37 38 38 39 38 36 32 29 30 30 26 25 31 28 24 24 23 24 24 23 22 22 22 22 23 22 22 21 21 20 18 17 16 15 15 15 14 14 13 12 12 11 11 10 11 12 13 15 18 23 23 28 28 29 27 25 22 25 20 18 17 19
36 36 36 36 36 35 32 30 30 31 29 31 31 23 23 22 23 23 24 23 23 22 22 21 21 21 21 20 20 20 17 16 15 15 15 14 14 13 12 12 11 11 10 10 10 11 12 15 16 22 24 25 28 28 29 27 26 26 21 20 19 21
33 34 34 35 35 35 33 30 29 30 31 34 31 27 24 23 23 23 22 22 22 22 22 21 21 20 20 19 19 18 16 15 14 13 13 13 14 13 12 12 12 12 12 11 10 11 12 15 16 18 22 25 27 28 28 27 27 27 26 21 20 21
32 33 33 34 35 35 34 31 29 29 32 34 29 27 25 24 23 23 23 22 22 21 20 20 20 19 19 19 19 19 17 15 14 14 14 14 14 14 13 13 13 13 13 11 11 11 12 14 15 17 20 23 25 26 27 27 27 27 27 22 20 21
27 27 28 28 31 33 34 34 32 30 31 31 29 27 25 24 24 24 23 22 21 20 20 20 19 18 17 18 18 18 17 16 16 16 14 14 14 14 14 14 13 13 13 11 12 12 12 12 14 16 18 19 20 22 23 25 24 26 25 21 20 20
23 24 24 24 27 29 31 33 34 34 32 31 29 26 24 24 24 24 23 22 21 19 19 19 16 16 17 17 17 17 16 16 16 16 15 14 14 14 14 14 13 13 13 12 13 13 12 12 12 14 15 17 18 19 21 21 20 20 18 16 15 13
21 22 22 22 23 25 27 31 34 34 33 32 28 24 23 24 23 23 23 21 20 19 18 19 17 17 17 16 16 17 18 16 16 17 17 18 18 18 17 16 15 16 16 16 15 13 11 12 12 14 19 18 21 18 18 18 17 17 15 17 16 9
19 19 19 20 21 24 26 26 27 29 31 30 26 24 23 23 23 22 21 20 19 19 17 17 17 16 17 16 16 15 16 18 21 19 18 17 21 23 24 23 17 18 18 17 17 17 14 13 15 21 22 22 23 23 23 22 22 20 17 20 21 12
16 16 17 18 21 22 22 22 22 23 25 28 27 24 23 23 22 22 21 19 18 18 17 17 16 16 16 16 15 15 14 14 17 22 23 21 21 22 24 25 24 24 23 20 16 19 21 21 22 23 23 24 24 24 24 24 24 23 23 21 12 4
13 14 16 18 18 18 18 18 19 20 22 24 26 25 23 23 23 23 22 20 19 18 16 17 16 15 14 14 14 14 13 13 12 15 22 23 22 23 24 25 24 25 25 24 21 18 18 22 24 25 25 25 25 25 25 25 24 24 23 20 17 0
13 13 14 14 14 14 14 15 16 19 21 22 24 25 23 23 23 23 23 21 19 17 15 15 15 14 14 13 13 12 12 12 12 11 13 18 23 24 25 25 25 25 25 24 23 23 22 23 24 26 26 26 26 26 25 25 25 23 21 19 6 0
9 9 10 10 11 12 13 13 15 18 20 22 24 25 24 24 24 23 24 22 19 16 15 14 14 14 14 14 13 13 13 13 13 13 14 13 15 19 22 25 26 26 25 25 25 24 25 26 26 26 26 26 26 26 25 24 20 21 19 11 -0 -1
6 6 7 8 9 10 10 12 14 16 19 21 23 24 24 24 24 24 22 19 18 18 16 15 15 14 13 13 13 12 12 13 14 14 14 14 15 15 16 17 21 24 25 22 24 26 27 27 27 27 26 26 26 25 25 21 12 6 2 0 -3 -3
4 4 5 7 7 8 9 11 14 17 20 22 23 24 24 24 24 23 24 23 18 18 17 16 14 14 13 12 12 13 13 14 15 14 15 16 17 17 16 17 18 20 24 26 25 27 27 28 27 26 26 25 25 24 20 7 3 0 -2 -3 -4 -6

ECMWFFLT1_sfc_temp_009.txt.gz
Temp
35 35 35 35 35 36 35 36 37 37 37 38 40 42 42 42 42 42 43 43 43 43 43 43 43 43 43 43 42 41 40 39 39 38 39 37 36 35 35 34 34 34 33 33 32 31 31 30 30 30 30 30 29 28 28 27 27 27 26 26 26 26
34 34 34 35 36 36 36 36 35 37 37 37 39 38 39 39 40 41 41 42 42 42 42 42 43 43 43 42 41 40 40 40 39 38 37 37 36 35 35 34 34 33 33 32 32 31 30 30 30 30 29 29 29 28 27 26 27 27 26 25 26 26
36 37 35 34 34 35 36 37 38 38 37 38 39 40 39 40 41 40 41 42 42 41 41 42 42 42 42 41 40 40 40 39 39 38 38 36 35 35 34 34 34 33 33 32 32 31 31 30 30 29 29 29 28 27 27 26 26 26 25 25 25 25
36 37 37 35 35 36 37 37 35 37 39 40 39 38 39 41 41 41 42 42 42 41 42 42 42 41 40 40 39 39 39 39 38 38 36 36 36 35 34 34 34 33 33 32 32 31 31 31 30 29 29 29 28 26 26 25 25 25 24 24 23 24
36 35 37 39 39 39 38 37 37 39 39 39 39 40 41 41 42 43 42 42 42 41 42 42 41 41 40 40 40 39 40 39 38 37 36 36 35 35 35 34 34 33 33 32 32 31 31 31 30 29 29 29 28 27 26 26 25 25 23 23 23 23
36 37 39 39 39 39 40 40 39 39 38 39 39 39 41 41 42 42 41 41 41 41 40 40 41 39 39 39 40 39 40 39 38 36 36 36 35 34 34 34 34 33 32 32 31 31 31 30 30 29 29 29 28 27 26 25 25 25 24 24 23 22
43 45 44 43 43 43 43 42 40 39 39 39 39 41 42 41 42 41 41 41 41 41 40 40 40 39 39 39 40 40 40 39 38 36 36 36 35 34 34 33 33 33 32 32 31 31 30 30 29 28 28 28 28 28 27 26 25 24 24 23 23 23
48 47 45 44 45 46 45 44 42 41 40 40 40 40 40 41 41 41 41 41 41 41 40 40 39 39 39 39 40 40 39 39 37 35 36 36 35 34 34 33 33 33 32 32 32 31 31 30 29 28 28 27 27 26 26 25 24 24 23 22 22 22
45 46 48 49 47 44 44 43 42 41 40 39 39 40 40 41 40 41 41 42 41 41 41 40 40 40 40 40 40 40 39 37 36 35 35 35 34 33 32 33 32 32 32 32 32 31 31 30 29 28 28 27 26 25 24 24 23 23 22 21 21 21
43 43 45 45 46 47 46 44 42 41 40 40 40 39 39 40 39 40 41 41 41 41 41 41 41 41 41 40 39 38 37 36 35 34 34 33 33 33 33 32 32 32 32 32 31 31 30 29 28 28 27 26 25 24 24 23 22 21 21 20 20 20
41 42 43 43 44 45 46 47 48 47 45 42 41 40 39 39 38 39 40 40 40 41 42 42 41 40 39 38 37 36 35 35 35 34 33 33 33 33 32 32 32 30 30 30 30 29 29 29 28 28 27 25 24 24 23 22 21 21 20 19 19 19
40 41 41 42 43 44 44 45 46 47 47 49 49 45 42 36 38 40 39 39 40 41 41 41 40 39 37 36 36 36 35 34 33 32 32 31 32 32 31 31 31 30 30 29 29 28 28 28 28 29 30 29 25 24 23 21 20 20 20 19 18 18
40 40 40 41 42 43 43 44 45 45 46 47 47 47 44 36 39 39 39 39 40 41 40 39 38 38 36 36 36 34 33 33 31 31 30 30 29 29 30 30 30 30 30 30 29 27 27 27 27 30 32 31 30 25 22 21 20 20 19 18 18 17
38 38 39 40 41 42 42 42 42 43 43 44 44 45 43 37 37 38 38 39 40 39 38 38 37 36 36 35 34 33 32 32 30 30 29 29 28 29 29 30 30 30 30 29 28 27 27 27 29 32 32 32 31 28 22 21 19 19 19 18 18 18
37 38 38 39 40 41 41 42 41 40 41 41 42 43 42 39 38 38 38 39 38 38 37 36 35 34 33 33 33 32 31 30 30 29 28 28 29 29 28 30 29 29 29 29 28 27 27 27 30 32 33 33 32 30 25 20 19 19 18 18 18 18
37 38 38 38 39 40 41 41 40 40 39 40 41 41 41 40 38 37 37 37 36 36 35 34 33 33 33 32 31 31 30 30 29 29 29 29 28 28 28 28 28 28 28 28 27 27 27 26 30 33 33 33 33 31 26 19 19 19 19 19 19 19
36 37 37 38 38 39 40 40 40 38 38 38 38 39 38 38 37 37 36 36 35 33 32 33 33 32 31 30 30 30 29 29 29 28 28 28 28 27 27 27 27 27 26 26 27 26 26 26 31 33 34 34 33 32 26 19 19 18 18 20 20 20
36 36 36 38 38 38 39 39 38 36 36 37 37 36 35 34 34 34 34 34 33 31 31 30 30 30 28 29 29 29 29 29 29 28 28 28 28 27 27 27 27 26 25 26 25 25 24 25 31 33 34 34 34 32 22 19 18 18 18 18 19 20
38 38 38 39 38 38 38 38 37 36 35 35 35 33 33 33 33 33 33 32 32 31 31 31 31 29 28 28 28 28 28 28 28 28 28 27 27 26 26 26 26 26 25 25 24 24 23 23 29 33 34 34 35 30 19 18 18 17 17 18 19 20
38 38 38 38 38 39 39 38 37 35 34 34 34 33 32 31 32 32 31 31 31 31 30 31 29 29 29 28 28 28 29 29 28 28 27 26 26 25 26 26 25 25 24 24 23 24 23 22 28 33 34 34 35 27 19 18 18 17 17 18 19 20
37 36 37 37 36 37 38 37 36 35 34 34 34 33 32 31 30 30 29 30 29 28 29 30 30 30 29 28 29 28 28 28 28 28 26 27 26 26 26 24 24 23 23 23 23 25 24 21 26 32 34 34 34 25 20 19 19 18 18 19 19 20
35 34 34 34 35 36 35 35 35 34 33 34 34 33 33 32 30 30 29 28 28 27 27 28 30 30 29 29 28 27 28 27 26 25 25 25 26 25 24 23 23 22 21 21 21 22 23 21 22 29 34 34 34 28 22 21 20 18 18 19 18 17
33 33 33 34 34 34 34 34 33 32 33 33 33 33 34 33 30 28 28 27 26 26 27 28 29 29 28 28 27 27 26 25 25 24 23 23 23 22 22 21 21 20 20 20 20 21 21 20 21 26 34 35 34 30 27 21 21 20 19 19 18 18
31 31 31 31 32 31 32 31 29 30 31 31 31 33 35 34 31 28 26 26 26 25 25 24 25 27 26 25 25 24 24 23 23 23 22 22 21 20 19 19 18 18 18 17 18 19 19 22 25 25 32 34 35 32 29 23 22 22 20 19 18 18
28 28 28 29 29 29 29 28 26 27 29 29 31 33 34 34 32 30 27 26 25 24 24 23 24 24 24 24 25 24 23 21 20 19 19 19 18 18 17 17 17 16 15 14 15 16 17 19 22 27 29 34 34 34 29 27 24 27 21 19 17 17
27 26 26 26 27 26 26 25 25 25 25 26 30 31 32 33 33 31 29 28 25 23 23 23 23 22 22 23 24 24 22 20 19 19 19 19 18 17 16 16 16 16 15 14 14 15 16 18 20 25 29 32 34 35 30 29 27 28 21 19 18 19
23 23 23 24 24 24 24 25 23 23 22 24 26 27 30 32 32 30 29 29 27 25 24 23 22 22 21 22 23 22 21 19 18 18 18 18 18 18 17 16 16 16 16 15 14 14 15 16 19 21 26 31 33 34 31 29 29 28 26 20 19 21
21 21 20 21 22 22 23 23 22 20 21 23 24 27 30 28 28 27 28 29 29 27 24 22 22 22 22 22 23 23 22 19 19 19 18 18 18 18 18 16 15 16 16 15 13 13 13 15 17 19 23 27 31 32 31 29 29 28 26 23 21 24
18 17 17 18 20 20 21 21 20 20 21 21 23 26 25 23 23 24 26 27 28 28 24 22 22 22 21 21 22 22 21 20 20 19 18 18 18 18 18 17 16 16 16 16 14 13 14 14 16 18 20 24 26 28 29 27 26 28 26 22 22 24
15 15 15 15 17 18 18 18 17 18 19 21 23 23 21 20 20 21 23 25 27 27 25 23 20 20 21 20 20 21 20 20 20 19 19 18 18 18 17 17 16 16 16 16 15 13 13 14 15 17 19 21 24 25 27 26 24 24 23 20 21 21
13 13 13 14 15 15 15 15 16 18 19 20 20 19 17 17 18 19 20 23 25 26 24 22 22 21 21 20 19 20 21 20 19 20 20 21 21 21 20 19 19 18 19 19 17 14 12 13 14 16 22 22 26 25 25 23 23 23 20 21 21 15
12 11 11 12 12 12 13 14 15 16 17 16 15 15 14 15 16 17 19 21 24 25 24 21 21 20 20 20 19 19 19 21 24 22 20 20 23 25 26 24 20 20 20 19 19 18 15 14 17 22 25 26 27 28 28 27 27 24 21 22 22 16
10 9 8 9 10 10 11 11 12 12 12 13 13 13 14 15 15 17 18 20 22 24 24 23 21 20 19 19 19 18 18 17 20 25 26 24 24 25 25 26 26 26 25 21 19 21 23 22 23 25 26 27 28 28 29 28 27 25 24 24 17 13
7 7 6 7 7 7 7 7 7 8 10 11 12 13 13 14 15 15 17 20 21 23 23 23 22 21 19 18 19 18 17 17 16 17 24 27 25 25 26 26 27 27 26 26 23 20 20 23 25 25 26 27 28 28 28 28 26 26 26 24 21 10
6 6 5 5 4 4 4 4 5 6 7 9 10 11 11 12 13 14 16 19 21 22 22 22 21 20 20 18 17 16 17 16 16 15 15 20 26 26 26 26 27 27 26 27 26 25 23 23 25 26 27 27 28 28 28 28 27 27 27 24 14 8
4 4 3 2 2 2 2 2 3 5 6 7 8 9 10 11 13 14 16 18 20 21 22 23 22 20 20 19 19 18 17 17 17 17 17 16 16 19 23 26 27 27 27 27 27 26 25 26 26 27 27 28 28 28 28 27 25 27 27 19 10 8
2 1 2 3 2 2 1 1 2 4 5 6 8 9 10 13 14 15 17 18 19 20 22 23 23 21 20 19 18 17 17 17 17 17 16 16 15 15 15 17 21 26 28 25 25 26 26 27 27 28 28 28 28 28 28 27 22 21 16 11 8 7
-0 -0 0 1 -0 -0 -0 0 2 4 6 7 10 10 9 8 8 10 12 14 17 19 21 23 23 22 20 19 18 18 17 17 17 16 16 17 17 17 16 17 19 21 25 27 26 26 27 27 28 28 28 27 28 28 28 20 17 12 9 6 5 4

ECMWFFLT1_sfc_temp_012.txt.gz
Temp
40 39 37 34 33 33 33 34 34 34 34 34 35 38 38 37 39 39 40 40 41 41 41 41 42 42 42 42 41 40 39 39 39 38 38 37 36 36 35 35 35 35 35 34 34 33 32 32 32 32 31 31 31 30 30 29 28 28 28 27 27 27
40 39 38 37 36 34 34 34 34 35 35 34 35 35 34 34 36 37 38 39 40 40 39 40 41 41 41 40 40 40 40 39 38 38 37 38 37 36 36 36 35 35 34 34 34 33 32 32 32 31 31 31 32 30 29 28 28 28 27 26 27 27
42 42 40 38 36 34 34 34 34 34 35 35 35 35 35 36 37 37 39 38 39 38 39 40 39 40 40 38 39 39 39 39 38 38 38 35 36 36 35 35 35 35 35 34 34 33 32 32 31 31 31 31 31 30 30 28 28 28 27 26 26 26
42 43 44 44 44 42 41 38 35 35 35 35 35 35 35 36 37 37 37 37 38 38 40 39 38 39 38 39 38 39 39 38 38 38 36 36 36 36 35 35 35 35 35 34 33 33 33 32 32 31 31 31 31 29 29 28 27 27 26 25 25 25
40 40 41 41 42 42 42 43 42 40 39 38 36 34 36 35 36 35 36 37 37 38 38 37 38 37 37 38 39 39 39 39 39 37 37 36 35 35 36 35 35 35 34 34 34 33 33 32 32 32 31 31 31 30 29 28 27 27 26 25 25 25
39 40 40 40 40 40 41 42 42 42 41 40 37 36 36 36 36 36 36 37 38 38 37 38 39 37 38 38 40 40 40 41 40 38 38 37 36 35 35 35 35 34 34 34 33 33 33 32 32 31 31 31 31 30 29 28 28 28 27 27 26 25
38 38 39 39 39 40 40 41 41 41 41 40 39 39 38 37 37 36 37 37 38 38 38 39 39 38 38 39 40 40 41 41 41 39 38 37 36 35 35 35 35 34 33 33 33 33 33 33 32 31 31 31 32 31 30 28 28 28 28 27 27 27
38 38 38 38 39 39 39 40 40 40 40 41 40 39 39 40 38 37 36 37 37 38 38 38 38 38 39 39 40 40 41 40 39 38 37 37 37 35 35 35 34 34 34 34 34 34 33 33 32 32 31 31 31 30 30 29 28 28 28 27 27 26
36 37 37 38 38 39 39 39 39 39 40 40 40 41 40 39 38 38 37 38 37 38 39 39 39 39 39 40 40 41 40 39 39 38 37 37 37 36 35 35 35 35 35 35 35 34 34 33 33 32 31 31 31 30 29 28 28 28 27 27 26 26
35 36 36 37 37 38 39 39 39 39 39 39 39 40 40 41 40 39 38 37 38 38 39 39 40 40 40 41 40 39 39 39 38 38 37 36 36 36 35 35 35 35 35 35 35 35 35 34 33 32 31 31 31 30 29 29 27 27 27 26 25 25
34 35 36 36 37 37 37 38 38 39 39 39 39 39 39 39 39 40 39 38 38 39 40 40 40 40 40 40 39 38 38 38 38 37 37 36 36 36 36 35 35 35 34 35 35 35 34 33 33 32 31 31 30 30 29 28 27 27 26 25 24 24
33 34 35 35 36 36 36 37 37 37 37 38 38 38 39 39 39 39 39 39 39 39 39 40 39 39 39 38 38 38 38 38 37 36 35 35 35 35 35 34 34 35 34 34 34 34 33 33 33 33 34 34 31 29 29 27 26 26 26 25 24 23
34 34 34 34 35 35 36 36 37 37 37 37 37 37 38 39 38 38 38 38 39 39 39 38 38 38 37 38 37 36 36 36 36 35 34 33 33 33 33 33 33 33 34 33 33 32 32 33 33 34 36 36 35 31 28 27 26 26 26 25 24 22
33 33 34 35 36 36 36 36 36 36 36 36 36 37 37 37 37 37 37 38 38 38 37 37 37 36 36 36 35 34 34 34 33 33 33 32 31 32 31 32 33 33 34 33 33 32 32 32 34 35 36 36 36 33 29 28 26 26 26 25 24 23
34 35 35 36 37 36 37 37 36 36 35 35 35 36 36 36 36 36 36 36 36 36 36 36 34 34 34 34 34 33 32 31 32 31 31 30 31 31 31 32 33 32 33 33 32 32 32 32 35 36 36 36 36 35 32 28 26 25 25 25 24 23
35 36 36 36 36 37 37 37 37 37 36 36 36 35 35 34 34 34 34 34 34 35 35 34 33 33 33 33 31 31 30 29 31 32 32 31 30 30 31 31 31 31 31 32 32 32 31 31 34 36 36 36 36 35 33 27 26 25 25 25 24 22
34 35 35 35 35 36 36 36 37 36 36 36 35 35 35 34 33 33 33 33 33 33 33 33 32 32 31 31 29 28 29 30 31 31 31 31 31 30 30 30 30 30 30 30 31 31 30 30 34 36 36 36 36 36 33 26 26 25 24 23 23 22
33 34 34 35 35 35 35 35 35 34 33 35 34 34 34 34 33 33 33 32 32 32 32 32 31 31 30 29 27 26 28 28 29 29 30 29 30 30 30 31 30 30 29 30 30 30 29 30 34 35 36 36 36 36 30 25 24 23 23 22 22 22
34 34 34 34 34 34 34 34 33 32 32 31 32 32 32 33 32 33 33 32 32 31 31 31 30 29 29 29 27 26 27 28 28 28 28 27 28 29 29 29 30 30 29 29 28 28 28 27 32 35 35 36 36 34 27 24 23 22 22 21 22 22
33 34 33 32 33 33 33 32 31 30 29 29 30 30 30 31 31 32 32 32 31 31 30 29 28 28 28 28 27 27 28 27 27 27 28 28 28 28 28 29 29 29 29 28 27 28 27 26 30 34 35 36 36 33 24 23 22 21 21 20 21 21
32 32 32 31 30 32 31 29 28 27 26 27 28 28 28 29 30 30 30 31 31 31 30 29 28 28 28 27 28 27 27 28 28 29 28 28 28 28 28 27 28 27 27 28 27 29 28 25 28 34 35 36 36 32 23 23 22 20 20 19 18 21
31 31 30 29 29 30 28 27 26 25 25 26 27 26 26 28 28 29 29 30 31 31 31 30 29 28 27 27 27 27 26 26 25 26 27 27 27 27 27 26 27 26 26 26 26 26 28 26 26 31 35 36 36 33 24 23 22 19 19 18 19 18
30 29 29 29 29 27 26 25 23 23 23 24 24 24 26 27 27 26 26 28 30 31 30 30 29 28 28 27 27 27 25 24 25 23 23 24 24 24 24 24 25 25 24 24 24 24 26 25 25 29 34 36 36 33 26 22 22 21 20 19 19 19
28 27 27 27 27 25 24 23 21 21 21 22 22 24 26 25 24 24 24 27 29 28 28 29 29 29 28 27 26 25 25 23 21 23 22 22 22 23 23 23 23 23 22 21 21 22 23 25 27 27 32 35 36 33 29 23 22 23 21 20 19 20
24 24 24 25 24 23 23 20 18 19 20 19 21 24 24 23 22 22 23 25 25 25 25 26 27 28 28 27 27 26 26 24 21 21 22 23 22 22 22 21 21 20 20 19 19 20 22 22 25 29 29 34 36 34 29 28 26 28 23 21 19 19
21 21 21 22 21 21 21 19 17 18 18 18 21 21 20 20 19 21 22 23 22 22 22 23 25 27 27 26 26 26 25 24 22 21 22 22 22 21 21 19 19 19 18 17 17 17 19 21 22 27 30 31 35 35 31 30 28 29 23 23 21 22
18 18 18 19 19 19 18 17 16 16 15 17 18 17 17 17 18 19 20 19 18 19 19 21 21 23 26 26 25 24 25 24 22 21 21 21 21 21 20 19 18 18 18 18 17 17 18 19 21 23 27 31 32 35 32 31 30 30 28 23 22 22
16 15 15 17 18 17 17 16 15 13 15 17 15 15 15 16 16 16 15 15 15 16 17 18 19 22 24 26 25 24 25 24 23 21 22 20 21 21 21 20 19 18 19 18 18 17 17 18 20 21 24 28 30 33 33 31 31 30 29 25 23 24
14 14 14 14 16 16 15 15 14 14 14 13 14 14 14 13 12 12 12 11 12 14 15 16 18 20 23 25 24 24 24 24 23 22 21 21 20 20 20 21 19 19 19 19 19 17 16 16 18 20 22 24 27 29 31 30 29 30 29 24 23 25
13 13 13 13 15 15 14 13 12 12 12 12 12 12 11 9 9 8 8 8 10 12 13 15 17 19 21 24 24 23 23 23 23 22 21 21 21 20 20 20 20 19 19 19 19 16 15 15 17 18 20 22 25 28 30 29 27 27 24 21 22 22
12 12 11 12 13 13 11 10 10 10 10 10 10 9 7 7 7 7 6 7 9 10 13 15 17 19 20 22 23 23 24 23 23 22 22 24 24 24 23 22 21 21 21 21 20 16 14 14 15 18 23 23 27 27 29 27 26 26 22 23 25 22
11 10 10 11 11 10 9 8 8 8 9 8 8 7 5 5 5 4 5 6 8 10 12 14 17 19 21 22 22 22 22 24 27 26 23 23 26 27 28 27 23 23 22 21 22 20 16 16 18 23 25 26 28 30 32 30 29 27 23 26 27 22
10 9 8 9 9 7 7 6 6 6 6 6 5 5 3 3 3 3 4 5 6 9 12 14 15 17 19 20 21 21 21 21 23 28 29 28 27 27 28 29 29 28 27 23 21 22 25 24 24 25 26 27 28 30 31 31 30 28 27 28 23 18
8 7 6 6 6 4 4 4 4 4 4 4 3 3 3 2 2 1 2 3 5 7 9 11 13 15 18 19 20 21 20 20 20 21 26 29 29 28 28 28 29 29 28 28 25 21 20 24 25 26 26 27 28 30 31 31 30 28 28 28 26 17
6 5 4 3 3 3 2 2 2 3 2 2 2 2 1 1 1 0 1 2 4 7 9 11 12 14 16 18 19 20 20 19 19 18 19 22 28 29 28 28 28 29 29 28 28 27 24 23 24 26 26 27 28 30 31 31 30 29 29 28 20 15
3 2 1 0 -0 0 -0 -0 1 1 1 1 1 1 1 1 1 1 2 3 5 6 9 11 12 13 14 16 19 20 20 20 20 19 20 19 18 21 25 28 29 29 29 29 29 28 27 26 26 26 27 28 28 29 31 30 28 30 30 25 17 15
-0 -1 -0 0 -0 -1 -1 -1 -0 1 1 1 0 0 0 1 1 3 5 8 9 9 9 9 9 10 10 12 13 16 19 20 20 20 19 18 18 18 18 19 23 27 29 27 27 28 28 27 27 27 27 28 29 30 31 31 26 24 24 21 16 14
-2 -3 -2 -2 -2 -3 -3 -2 -0 1 1 1 1 1 1 2 3 4 5 5 6 5 6 6 7 8 10 11 14 17 19 20 20 19 19 19 19 19 18 19 20 22 26 29 28 28 29 28 28 27 28 28 29 30 31 24 22 22 20 15 14 13

ECMWFFLT1_sfc_temp_015.txt.gz
Temp
39 39 40 40 41 41 41 42 42 42 42 41 40 39 39 39 39 39 39 39 39 40 41 41 41 41 42 42 42 42 41 41 42 42 42 42 41 41 40 40 39 39 39 40 39 39 39 39 39 39 38 38 38 38 38 38 36 37 36 36 36 35
39 39 39 39 40 41 41 42 42 42 42 42 41 42 43 42 41 40 39 39 38 39 39 40 40 41 41 41 41 41 40 41 41 41 40 41 40 41 40 40 39 39 39 39 39 39 39 38 38 38 38 38 38 38 38 37 35 36 36 35 35 34
38 39 39 39 40 41 41 41 41 41 42 41 41 41 41 41 42 42 41 39 39 38 38 40 40 40 41 41 41 41 41 41 41 41 41 41 40 40 39 40 39 39 39 39 39 39 38 38 37 37 37 37 38 38 38 36 35 35 36 34 33 34
38 38 39 39 39 39 40 40 41 40 40 41 41 41 41 40 41 41 41 41 40 39 39 39 39 39 40 40 40 40 41 41 41 41 40 40 40 40 40 40 39 39 39 39 39 39 38 38 38 37 37 37 37 37 37 35 34 35 35 33 32 33
37 37 38 38 38 38 39 39 39 40 40 40 40 40 40 40 40 41 41 41 41 41 40 39 39 39 39 39 40 40 41 42 42 41 40 41 41 40 40 40 40 39 39 39 39 38 38 38 38 38 37 37 37 37 36 35 34 35 34 32 32 32
37 38 38 38 38 38 39 39 39 39 39 39 39 39 39 40 40 40 40 40 41 41 40 40 40 39 39 39 40 40 41 41 42 41 40 41 41 40 39 40 40 39 39 38 38 38 38 37 38 37 37 37 37 37 36 35 35 35 35 33 33 32
36 36 37 37 37 38 38 39 38 38 38 39 39 38 39 39 40 40 40 40 40 41 41 41 40 39 39 39 40 40 41 41 41 42 41 41 41 40 39 38 39 39 39 38 38 38 38 37 37 37 37 37 38 38 38 36 35 35 35 35 34 33
35 36 36 36 37 37 37 38 38 38 38 38 39 38 38 39 39 39 39 40 39 40 40 40 40 41 40 40 40 40 41 41 41 41 41 41 41 41 40 39 39 39 39 39 39 39 38 38 38 37 37 37 37 38 38 37 36 35 36 35 35 34
34 35 36 36 36 36 37 37 37 37 37 38 38 38 38 38 39 39 39 39 39 39 39 39 39 40 40 40 41 41 41 41 41 41 41 41 40 40 40 39 39 39 39 39 39 39 39 38 38 38 37 37 37 37 37 37 36 36 36 36 35 34
34 35 35 35 36 37 37 37 37 37 37 36 37 37 37 38 38 38 38 38 38 38 38 38 38 39 39 39 40 40 40 40 40 40 41 40 39 39 40 40 38 39 39 39 39 39 39 38 38 38 38 37 37 37 37 37 36 36 36 36 35 35
34 35 35 36 36 36 37 37 37 37 37 37 37 37 37 37 37 37 37 37 37 37 37 38 38 38 38 38 38 38 39 39 39 40 40 40 39 39 39 39 39 38 38 38 38 38 38 38 38 38 38 37 37 37 37 36 36 36 35 35 34 34
34 35 35 35 35 35 36 36 36 37 36 36 37 36 37 37 36 36 36 36 36 37 37 37 37 37 37 37 37 37 38 38 38 38 37 38 38 39 39 38 38 38 37 37 37 37 38 38 38 37 37 37 37 36 36 35 35 34 35 34 33 32
34 34 33 34 35 35 35 35 36 36 36 36 36 36 36 37 36 36 36 35 36 36 36 36 35 35 35 36 36 35 35 36 35 35 35 36 36 36 37 37 37 37 37 36 36 36 36 37 38 37 38 38 38 37 36 33 33 33 34 34 33 31
31 31 31 32 33 34 34 34 34 35 34 35 34 35 36 35 35 35 35 35 35 35 35 35 34 34 34 34 34 34 34 34 34 34 34 34 34 35 35 35 36 36 36 36 36 36 36 37 37 38 38 38 38 37 35 34 33 32 33 33 33 32
31 31 31 32 32 32 33 33 33 33 33 33 33 34 34 34 34 34 34 35 35 34 34 33 33 32 32 32 33 33 33 33 33 33 33 33 34 34 34 35 35 35 36 36 35 35 36 36 38 38 38 38 38 38 36 34 32 32 31 33 32 32
31 32 32 32 32 33 33 34 33 33 33 32 33 32 32 32 32 32 32 33 33 33 33 32 31 31 31 31 32 32 32 32 32 33 33 33 33 33 33 33 34 34 35 35 35 35 36 36 37 38 38 38 38 38 37 33 32 32 31 32 32 31
31 31 31 32 32 32 32 32 32 32 31 31 30 31 31 31 30 30 31 32 32 31 30 30 30 30 31 31 31 30 30 31 31 32 32 33 33 32 32 33 32 32 33 33 34 34 34 36 37 38 38 38 38 38 38 34 32 32 31 32 32 31
31 31 31 31 31 31 31 30 30 29 28 29 28 28 28 28 28 29 30 30 29 29 29 28 28 30 30 30 30 30 30 30 31 31 32 32 32 32 31 32 32 31 32 32 32 33 33 35 37 37 38 38 38 39 36 34 32 31 30 29 31 31
30 31 31 30 30 30 30 30 28 27 26 25 25 25 26 27 26 27 29 28 28 27 26 26 27 29 30 30 29 28 29 29 30 31 31 30 30 30 30 30 31 31 31 31 31 31 31 32 35 37 37 38 38 38 35 34 32 31 29 30 30 29
30 30 30 29 29 29 29 28 25 25 24 23 24 23 23 24 24 27 26 25 25 25 25 25 26 29 29 28 27 27 28 29 30 30 30 29 29 29 29 30 30 30 30 30 30 30 30 31 33 36 37 37 38 37 34 33 32 29 28 27 27 27
29 29 29 28 28 29 27 25 22 23 22 22 23 22 21 22 23 24 23 23 23 23 22 23 26 27 26 26 25 26 26 28 29 29 29 28 28 28 30 30 29 29 29 29 29 31 30 30 32 34 36 37 37 37 35 33 31 28 27 26 23 25
27 27 27 27 28 27 24 22 22 20 21 21 22 20 20 21 23 24 23 22 21 20 20 22 24 24 24 23 23 24 25 27 28 28 28 28 29 29 30 29 28 27 28 29 29 29 30 30 30 31 35 36 37 37 35 33 30 27 25 24 22 21
26 26 26 27 27 25 23 20 20 20 20 21 20 19 21 23 23 21 20 20 19 18 18 20 22 22 22 21 21 22 23 25 26 27 27 27 28 28 27 26 26 26 27 28 28 28 28 29 29 29 33 35 37 37 36 31 29 28 26 23 22 21
25 24 24 25 24 23 21 19 18 19 19 18 18 19 22 21 20 19 17 16 16 16 17 18 20 20 19 19 19 19 20 22 24 25 26 27 27 26 26 26 25 25 25 26 26 26 26 28 29 28 31 34 36 37 37 31 29 28 26 23 21 21
23 23 23 24 23 22 21 16 16 17 17 16 19 20 20 18 17 16 15 15 14 15 16 16 16 16 16 16 17 17 17 19 21 23 25 25 25 25 24 25 25 24 24 24 24 24 25 26 27 30 29 32 35 36 37 34 30 31 27 24 21 21
21 21 22 22 21 20 19 16 15 16 16 17 20 19 17 15 14 13 13 13 13 14 14 14 13 13 13 14 14 15 16 17 20 22 25 25 25 24 24 25 24 23 22 23 23 22 22 24 26 28 30 30 33 35 36 35 32 31 26 25 24 23
18 19 19 20 19 20 18 16 14 14 14 17 18 16 14 13 12 11 11 11 11 11 11 11 11 11 11 11 13 13 16 17 19 21 23 24 24 24 23 24 24 23 23 23 22 23 22 22 24 25 28 31 31 34 35 35 33 32 30 26 25 26
16 15 15 17 18 18 17 16 14 12 15 16 15 14 12 11 10 9 9 8 9 8 9 8 8 9 10 10 12 14 16 17 19 20 22 24 24 24 23 23 24 23 22 22 23 23 22 22 22 23 25 28 30 31 34 35 34 32 31 28 26 27
14 14 14 14 16 16 16 15 15 14 15 13 13 12 10 8 8 7 7 6 6 7 7 6 6 8 9 10 12 14 16 18 19 20 21 22 23 23 23 23 23 23 23 22 22 23 23 21 21 21 23 24 27 28 30 32 32 31 31 27 26 26
12 12 12 12 14 15 14 13 13 13 12 11 10 8 7 6 6 5 5 5 5 5 5 5 7 7 8 9 10 12 13 16 18 19 20 21 22 22 22 23 23 23 23 22 23 23 22 21 20 21 21 23 24 26 28 30 30 28 28 25 24 24
11 11 11 11 12 12 11 11 11 11 10 9 7 6 5 4 5 4 3 3 3 3 5 5 5 5 6 7 9 11 13 14 16 18 21 23 25 25 24 23 24 24 25 25 24 23 22 21 20 21 25 24 26 26 27 28 28 28 27 26 26 23
10 9 9 9 10 9 8 7 8 8 8 6 5 4 2 2 2 1 1 2 1 2 3 3 3 4 5 6 7 9 11 17 21 21 21 21 26 28 29 29 25 26 27 26 25 26 24 23 23 26 27 27 28 29 30 31 31 30 27 28 29 25
7 6 5 6 6 5 5 4 4 3 3 4 3 3 1 0 -0 -0 0 0 0 1 2 2 2 3 3 4 5 6 8 10 14 21 24 25 26 27 28 30 30 31 31 28 25 27 29 29 28 27 28 28 28 29 30 31 32 31 29 29 26 22
3 2 2 2 2 1 1 1 1 1 1 1 1 1 0 -1 -1 -2 -1 -1 -1 1 1 2 2 2 3 4 5 7 9 10 11 15 22 25 26 27 28 29 30 31 31 31 30 27 25 28 29 28 28 28 28 29 30 30 32 32 30 30 28 21
1 0 -0 -1 -1 -1 -1 -2 -1 0 0 1 1 0 -1 -1 -1 -2 -2 -1 -0 1 1 2 2 2 3 3 4 6 10 11 11 10 11 17 24 26 28 29 30 30 31 31 31 32 29 27 28 29 28 28 29 29 29 30 32 31 30 30 24 20
-1 -2 -2 -2 -2 -2 -2 -2 -2 -1 0 0 0 -0 -1 -1 -2 -2 -2 -1 -0 0 1 2 2 3 4 5 7 8 7 8 9 9 9 9 10 14 21 26 28 29 30 31 32 31 31 30 28 29 28 28 29 29 30 30 30 31 31 28 22 21
-3 -3 -2 -2 -2 -2 -3 -3 -2 -0 -0 -0 -0 -1 -1 -1 -1 -1 1 2 3 2 2 2 3 3 3 4 3 3 4 4 6 7 7 7 8 11 14 19 22 27 29 28 29 31 31 31 29 29 29 29 29 29 30 30 28 27 26 26 23 21
-4 -4 -3 -3 -3 -3 -3 -3 -1 0 1 0 0 -1 -1 -1 -1 -1 -0 0 1 1 1 2 2 2 2 2 2 2 3 4 5 6 7 10 13 15 17 19 21 23 26 29 30 31 31 31 30 29 29 29 29 30 30 25 24 25 25 24 21 20

ECMWFFLT1_sfc_temp_021.txt.gz
Temp
46 47 47 48 48 48 48 48 48 48 48 47 47 46 47 46 47 47 47 47 47 47 48 48 48 49 49 49 50 50 49 48 49 49 49 50 51 51 51 50 49 49 49 49 49 49 49 49 49 49 48 48 48 48 48 49 49 48 48 49 49 49
46 46 46 46 46 46 47 47 47 47 47 46 46 47 47 47 46 46 46 46 45 45 45 46 47 48 48 48 48 48 48 48 48 48 48 48 49 49 49 49 48 48 48 49 48 48 48 47 48 48 48 47 47 47 47 48 47 47 47 48 49 48
46 46 46 46 47 47 47 46 46 46 46 45 45 44 45 44 45 46 46 46 45 44 44 44 44 44 46 46 47 46 47 47 48 47 48 48 47 48 48 48 48 48 48 48 48 47 47 47 47 47 47 47 46 47 47 46 47 46 46 47 47 47
46 47 47 47 46 46 46 46 46 45 45 45 45 45 44 44 44 45 45 45 45 44 44 44 44 44 44 44 45 44 44 45 46 46 46 46 47 47 47 47 47 47 48 47 47 47 47 47 47 47 47 46 45 45 45 45 45 45 45 45 45 47
46 46 46 46 46 46 46 46 46 46 45 45 45 44 44 45 45 45 45 45 45 45 45 44 44 44 43 43 43 43 43 44 44 45 44 45 46 46 46 46 46 46 46 46 46 46 46 46 46 46 46 45 45 45 44 44 44 44 44 44 45 46
47 47 46 46 46 46 46 46 46 46 46 45 45 44 44 44 45 45 45 45 45 46 46 46 45 44 43 42 43 42 42 43 43 43 42 43 44 44 45 45 45 45 45 45 45 45 46 46 46 46 46 45 45 44 44 45 44 44 44 44 45 45
46 46 46 46 46 46 46 46 46 46 45 45 44 43 44 44 45 44 44 44 44 45 45 45 45 44 44 43 43 42 42 42 42 42 42 42 41 43 44 44 44 44 44 44 44 45 45 45 46 45 45 45 45 45 44 44 44 44 44 44 45 43
45 46 46 46 46 46 45 45 45 45 45 45 45 43 43 43 44 44 44 44 44 43 44 44 43 43 43 43 43 43 42 42 41 41 41 42 41 42 42 42 42 43 43 43 44 44 45 45 45 45 45 45 45 44 44 44 44 44 44 44 44 44
44 45 45 45 45 46 46 45 45 45 45 44 44 44 43 43 43 43 43 43 43 43 43 43 43 42 42 41 41 42 42 42 41 41 40 41 40 40 41 41 41 41 41 42 42 43 43 43 44 44 44 44 44 44 43 43 43 43 44 44 44 44
43 43 44 44 45 45 45 46 45 45 44 43 44 44 43 42 42 42 42 42 42 42 42 42 42 42 41 41 41 40 40 40 41 40 40 40 39 39 40 40 40 41 41 41 41 42 42 42 43 43 44 44 44 43 42 42 41 42 42 42 43 43
43 43 43 44 44 44 44 44 45 45 44 44 44 44 42 43 41 41 41 41 41 41 41 41 42 42 41 40 39 38 38 38 39 39 39 39 39 39 39 40 39 39 39 40 40 40 41 40 40 41 42 42 42 42 41 40 40 40 40 41 41 42
43 43 43 43 43 43 43 43 43 43 42 42 42 42 42 41 40 40 40 40 40 41 41 41 41 40 39 38 37 37 36 36 37 37 37 37 38 38 39 39 39 39 38 38 39 40 39 39 39 39 40 40 40 40 39 39 39 39 40 40 39 40
43 43 43 43 43 43 43 43 43 43 42 42 42 41 42 41 39 39 39 38 39 39 39 39 39 39 37 37 36 33 33 34 34 34 35 35 35 36 37 37 38 38 39 38 38 38 39 39 39 39 41 41 41 40 39 38 37 38 39 39 39 39
42 42 42 43 43 43 43 42 42 41 41 42 41 41 41 40 39 38 38 38 38 38 38 38 38 37 35 34 32 31 31 31 31 33 34 34 33 34 35 35 36 37 38 38 38 38 38 38 39 40 41 41 41 40 38 37 37 37 38 38 38 39
42 43 43 43 43 43 43 43 42 40 41 41 41 41 40 38 38 38 37 37 37 37 37 37 35 34 33 32 32 30 30 29 30 31 32 32 33 33 32 34 34 35 36 37 36 36 37 38 39 40 40 40 41 41 40 37 36 36 36 38 38 39
43 44 44 43 44 44 44 43 42 41 42 41 41 40 39 38 37 37 35 35 35 35 36 35 33 33 32 32 31 30 29 28 28 30 31 31 31 31 31 31 32 33 34 35 35 36 36 37 38 39 39 39 39 40 40 36 36 35 35 36 37 38
43 43 43 43 43 43 42 42 42 41 41 40 39 39 37 37 36 35 35 34 35 34 33 33 32 32 32 31 30 28 27 27 27 27 28 30 30 29 29 30 29 30 31 32 33 33 34 36 38 38 39 39 39 39 39 36 36 36 35 36 37 37
42 42 42 43 42 41 41 40 41 40 38 38 37 36 36 35 33 34 34 33 33 33 34 32 31 31 31 30 28 27 26 26 25 25 27 28 29 29 29 29 29 28 29 30 30 30 31 34 37 37 38 38 38 39 37 36 35 35 35 35 36 36
43 43 42 41 41 40 40 40 39 38 37 35 34 33 33 32 32 33 33 32 32 32 33 32 31 30 29 28 26 25 25 24 23 24 25 25 26 26 26 25 26 27 27 27 28 29 29 31 34 36 37 37 38 37 35 35 35 35 35 35 36 36
43 42 40 39 39 39 40 39 37 36 34 32 32 30 31 30 30 31 30 30 30 31 32 31 29 28 27 26 24 23 23 24 23 23 24 23 23 24 24 24 24 24 25 25 26 27 28 29 32 35 36 36 37 36 34 34 34 34 34 35 36 37
39 38 38 38 37 38 38 36 34 32 30 29 29 29 27 28 29 29 28 29 30 30 29 28 27 26 25 24 23 22 21 21 21 22 22 23 23 22 22 22 22 22 23 23 24 27 27 27 31 34 35 36 36 36 34 34 34 33 33 34 35 37
38 37 36 35 36 37 35 33 32 28 27 27 27 25 24 26 26 28 28 28 28 27 25 25 23 23 23 22 21 21 20 21 20 20 20 21 22 21 21 20 20 18 19 21 21 22 23 24 26 30 33 34 35 36 35 34 33 32 32 33 34 34
36 35 35 35 35 33 32 30 27 25 24 24 23 22 24 25 26 25 25 25 24 23 22 22 21 20 20 20 19 19 19 19 19 19 18 18 18 18 17 17 16 17 17 18 18 19 21 23 24 27 32 34 35 36 35 33 32 32 32 33 33 34
34 33 33 33 32 30 28 25 22 22 22 20 19 21 23 23 22 22 20 19 19 19 17 16 16 17 17 17 17 16 16 17 17 17 16 17 16 15 14 15 15 15 15 16 17 18 20 23 26 26 30 33 34 35 36 34 32 33 32 32 32 33
30 30 30 29 28 27 24 21 18 18 18 17 18 20 20 19 18 17 15 14 14 13 12 12 12 12 13 13 14 13 13 14 14 14 14 14 13 13 12 12 13 13 13 14 16 19 21 23 26 30 30 33 35 35 36 36 35 36 34 32 31 32
27 25 26 25 24 23 21 18 16 15 14 14 18 17 15 13 12 11 10 9 9 8 8 9 9 9 10 10 10 10 10 10 11 11 12 12 12 11 11 12 12 12 12 12 15 17 21 23 26 29 31 32 34 35 36 36 36 36 33 33 32 33
21 20 20 22 21 20 18 17 14 12 10 13 14 12 11 9 8 7 6 6 6 6 6 6 6 6 7 7 8 7 7 7 9 8 9 10 10 10 9 10 11 11 12 13 14 16 19 23 25 28 30 33 34 35 36 36 36 36 36 33 33 34
18 16 16 17 17 16 16 14 12 8 9 12 11 9 8 7 5 4 4 4 4 4 5 4 4 5 5 6 7 6 7 7 7 7 7 8 8 9 8 9 10 11 11 12 14 16 19 21 24 26 28 31 32 33 35 35 36 35 35 35 33 34
14 13 13 11 14 12 12 10 10 9 9 8 8 8 6 5 4 3 3 3 4 4 4 3 3 4 5 5 6 6 7 7 7 6 6 7 7 7 8 8 9 9 10 11 13 15 17 19 21 24 26 27 29 30 31 32 32 34 34 33 33 33
12 10 10 9 10 10 9 8 7 7 7 7 7 6 5 4 3 3 2 2 3 3 3 3 4 4 4 5 5 5 5 6 6 5 5 5 5 5 5 6 7 8 9 10 11 13 14 15 17 20 21 25 27 29 30 30 30 29 30 30 30 30
9 8 7 6 7 7 6 6 6 6 6 6 6 5 3 3 3 2 2 2 3 2 4 4 3 4 4 4 4 5 5 5 4 5 5 7 7 6 5 5 6 7 8 9 9 9 10 13 14 18 24 25 29 29 29 29 29 29 29 31 32 30
7 5 4 5 6 5 5 5 5 5 6 5 5 4 2 2 2 1 1 2 2 2 3 3 3 3 3 3 3 3 4 9 13 10 7 7 12 15 16 15 9 10 10 9 10 11 10 11 14 21 24 26 28 30 31 32 33 33 31 31 33 31
5 4 3 4 5 4 4 3 4 4 4 5 5 4 2 2 1 1 1 1 1 2 2 2 2 2 3 3 3 3 3 3 6 12 14 14 14 15 16 17 18 18 19 15 12 15 20 21 22 23 23 24 25 27 28 29 30 31 32 33 30 28
3 2 2 3 3 2 2 2 3 3 4 4 4 4 2 1 0 -0 -0 0 1 1 1 1 1 2 2 2 3 3 2 2 2 3 10 14 14 15 16 16 17 18 18 19 18 16 15 18 21 22 23 25 26 27 27 29 29 30 31 32 32 27
3 3 2 2 2 2 2 1 2 3 3 3 3 3 1 1 0 -0 -1 -0 -0 0 1 1 1 1 2 1 1 2 2 2 1 0 1 6 12 14 14 15 16 16 17 17 18 19 18 18 19 21 22 23 24 25 25 27 28 30 31 31 29 26
2 2 1 1 1 1 1 1 2 3 3 3 3 2 1 0 0 -0 -0 -0 -0 -0 -0 0 1 1 1 2 2 2 2 2 2 2 1 1 2 4 8 12 14 15 15 16 16 17 17 18 19 21 22 23 24 25 26 26 25 29 31 30 27 27
1 0 1 1 1 1 0 0 2 3 3 3 3 2 1 0 0 -0 0 1 1 1 1 1 2 2 2 2 2 2 2 2 2 2 2 1 0 0 1 2 5 10 14 11 13 15 17 18 20 21 22 23 24 25 26 27 23 22 25 27 28 27
-1 -1 -0 0 -0 0 1 1 3 3 3 3 2 2 1 0 0 0 0 1 1 1 2 2 2 3 2 2 2 2 2 3 2 2 2 2 2 2 2 3 5 6 11 15 16 18 19 19 20 21 22 23 24 25 27 21 20 21 23 25 27 27

ECMWFFLT1_sfc_temp_024.txt.gz
Temp
38 37 38 39 40 41 41 41 42 41 38 38 39 39 39 36 36 34 35 35 38 38 37 37 38 39 39 39 39 40 39 39 40 40 41 41 42 41 41 40 38 38 38 37 38 38 38 37 36 36 36 35 37 37 39 37 37 38 38 39 39 40
38 37 37 38 38 38 39 40 40 40 39 37 36 34 34 35 35 35 34 33 33 34 33 34 35 36 37 37 38 38 37 38 38 38 38 39 39 39 38 38 38 38 38 38 38 37 37 36 36 35 35 35 37 37 38 37 36 37 38 38 39 39
38 38 38 39 38 38 38 39 40 39 39 38 37 36 34 33 34 33 34 34 33 33 33 33 32 33 33 33 34 35 35 37 37 37 37 36 36 36 37 37 37 37 37 38 38 37 37 37 37 36 35 34 35 36 35 35 35 36 37 37 38 38
38 37 38 38 37 38 38 39 37 36 35 36 36 36 34 33 33 32 32 33 34 32 33 33 33 33 31 31 31 33 32 34 34 35 36 36 37 36 36 36 36 36 35 35 36 36 37 37 37 36 36 36 36 35 37 37 35 35 36 35 36 37
39 38 38 37 37 38 38 39 38 38 37 36 35 33 33 33 33 32 32 31 31 32 32 32 32 32 32 32 31 31 31 31 33 34 35 36 36 37 36 36 36 36 34 34 34 34 35 35 35 36 36 36 35 36 36 36 35 36 36 36 36 37
40 39 38 37 37 36 38 39 39 38 37 36 36 34 33 34 33 34 33 33 31 32 31 31 32 31 31 31 31 31 31 31 31 31 31 32 33 34 35 35 36 36 35 35 34 34 34 35 35 35 35 35 36 36 36 36 36 36 36 36 37 37
38 38 37 37 36 36 37 37 37 37 36 34 35 35 35 34 33 35 35 34 33 33 32 31 32 31 31 30 30 30 30 30 31 30 30 30 30 30 32 33 32 33 34 34 34 34 34 34 34 35 36 37 36 36 36 35 35 36 36 37 37 38
36 35 36 35 36 36 36 35 36 36 35 35 35 35 35 35 35 34 33 32 32 33 32 32 33 33 32 31 30 30 30 31 29 29 30 30 30 29 29 30 31 31 32 32 32 33 33 33 33 34 36 37 37 37 37 36 36 36 37 37 38 38
35 35 36 35 36 36 36 36 35 36 35 35 34 34 35 33 33 32 31 31 31 31 31 30 31 32 32 31 30 30 29 29 30 30 31 31 31 30 30 30 30 31 31 31 31 32 32 33 33 34 34 35 36 36 37 37 37 37 37 38 38 39
35 35 35 35 34 35 35 37 37 36 34 33 33 33 33 33 31 30 30 30 30 30 31 31 31 32 32 31 29 29 28 29 28 28 29 29 30 30 30 30 30 30 30 31 31 32 32 32 32 32 33 34 34 35 36 36 36 37 37 37 38 38
33 33 34 34 36 36 36 36 34 34 32 31 31 31 31 32 30 29 29 29 29 30 29 30 31 32 32 32 31 31 30 29 29 28 28 28 29 31 30 30 30 30 30 30 30 31 32 32 33 33 33 33 34 34 34 35 35 36 36 36 37 38
32 33 32 33 34 34 33 33 33 33 33 32 31 31 31 32 31 30 30 31 31 31 31 31 31 31 31 31 31 30 30 29 28 28 27 28 28 29 29 29 30 29 29 30 30 30 31 32 33 35 38 39 36 34 34 34 34 34 35 35 35 36
32 32 32 32 32 33 33 33 32 32 32 31 30 31 31 31 31 30 28 30 30 30 30 30 30 30 30 30 30 28 28 28 28 27 26 27 27 27 28 29 28 29 29 29 30 30 31 32 33 36 39 40 41 38 34 33 33 33 34 34 34 34
31 32 32 32 33 32 32 32 31 31 31 30 30 31 30 30 29 29 30 30 30 30 29 29 29 29 29 28 28 28 28 27 26 26 25 26 25 26 27 27 27 28 28 29 29 29 30 31 34 37 38 39 40 39 36 33 33 33 33 33 33 34
32 33 34 33 34 33 32 32 31 31 30 31 30 30 31 29 28 29 29 29 29 29 29 29 28 28 28 27 28 27 27 26 25 25 25 24 25 25 25 26 26 26 27 28 27 28 29 30 34 36 38 38 39 39 38 34 33 32 32 33 33 33
36 36 36 34 32 33 33 34 34 31 31 31 30 30 28 28 28 29 29 29 29 29 28 28 26 27 27 28 27 27 26 26 25 25 24 24 24 24 24 24 24 25 26 26 27 27 28 28 32 35 36 37 37 38 38 34 33 32 32 32 33 33
36 35 34 34 35 35 34 33 33 32 31 30 29 28 27 27 27 28 28 28 29 28 27 26 26 26 26 26 26 26 25 25 25 24 24 23 23 22 22 23 22 23 24 24 25 25 26 28 32 33 34 35 36 37 37 33 33 32 32 32 33 33
37 36 35 35 34 33 32 31 31 29 29 28 27 26 26 25 26 26 26 26 27 26 26 26 25 25 25 25 24 24 24 24 24 23 24 23 23 23 22 22 22 21 22 23 23 24 24 26 31 32 33 34 34 36 33 32 31 31 31 31 32 32
33 32 31 30 30 30 30 28 28 27 27 26 25 23 23 24 24 25 25 25 25 25 25 24 24 23 23 23 22 21 21 21 21 22 23 21 21 21 20 20 20 21 21 21 22 22 22 23 27 30 31 32 33 32 30 30 30 30 30 31 31 32
30 31 32 29 28 28 28 27 26 26 24 23 23 21 22 20 21 23 22 22 22 23 23 22 21 20 20 19 18 18 19 20 20 20 20 19 19 19 19 19 19 20 20 20 20 21 20 21 25 29 29 30 31 30 27 28 28 28 29 29 31 32
29 29 28 28 26 26 26 25 23 23 21 20 20 20 19 19 20 20 19 20 20 20 19 19 18 17 17 16 16 15 15 15 15 17 18 17 17 17 18 18 18 18 19 19 19 23 22 20 23 27 28 29 29 28 25 26 26 26 27 29 29 31
28 27 26 25 24 23 23 22 21 18 19 18 19 17 16 18 18 18 18 17 17 16 15 15 14 14 13 12 12 12 12 13 13 13 14 14 14 14 15 16 16 15 16 17 18 18 19 18 19 21 26 26 27 28 25 23 23 22 24 27 28 28
27 26 25 24 23 23 21 19 16 16 16 16 15 14 16 17 17 15 14 14 13 12 11 11 10 9 9 9 9 10 10 10 10 10 10 10 11 11 11 12 12 12 13 14 15 15 16 17 16 18 24 25 26 27 26 21 21 22 24 25 27 28
24 23 22 22 22 20 18 15 13 14 14 13 12 13 15 14 13 12 10 9 8 8 7 7 7 8 7 7 7 6 6 7 8 7 7 8 8 7 7 7 8 9 9 11 12 13 13 16 19 16 20 23 24 25 26 22 20 22 22 23 25 27
21 21 20 20 18 18 16 12 11 11 11 10 11 13 12 11 10 9 8 7 6 5 5 5 5 5 6 5 6 5 4 5 5 5 6 5 5 5 4 5 6 7 7 8 10 11 12 13 14 19 17 21 23 24 25 25 24 27 25 24 24 26
18 17 16 17 15 14 13 10 9 9 8 8 11 11 9 8 7 6 5 4 4 3 3 4 4 4 4 4 4 4 3 3 3 3 4 4 4 3 3 4 5 6 6 6 7 9 12 13 14 17 19 19 22 23 24 26 27 28 25 25 25 27
14 14 12 14 12 12 10 8 6 6 5 8 9 7 6 6 5 3 2 2 2 2 3 3 3 3 3 3 3 2 2 2 2 2 3 3 3 3 2 3 4 4 5 5 6 7 9 11 13 13 16 20 21 22 24 25 27 28 30 27 27 29
10 9 9 10 10 9 8 6 4 3 5 7 7 6 5 4 2 2 1 1 2 2 2 1 2 2 2 3 3 3 3 2 2 2 2 2 2 2 2 2 3 3 4 4 5 6 7 9 11 12 13 15 16 17 19 21 22 24 27 28 29 32
9 8 7 6 7 6 5 2 4 5 6 5 6 5 4 1 1 1 1 1 1 1 1 1 1 2 2 2 3 3 3 3 2 2 2 2 1 1 2 2 2 3 3 2 3 4 5 6 7 8 10 11 11 12 14 16 17 21 23 22 24 28
6 6 5 5 6 5 4 3 3 3 3 4 4 3 2 1 1 0 0 0 1 1 1 1 2 2 1 2 1 1 1 2 2 1 1 1 1 1 1 1 2 2 2 2 3 3 3 4 5 6 7 8 9 11 13 15 16 17 19 22 24 25
4 3 3 3 4 3 2 1 2 2 3 3 3 2 0 0 1 1 -0 0 0 -0 1 1 1 0 0 0 1 1 2 1 1 2 2 4 4 4 3 2 3 4 5 5 4 4 3 5 6 7 13 12 16 15 14 14 16 17 18 21 24 23
2 2 1 2 2 1 1 1 1 2 3 2 2 1 -0 -0 -0 -1 -1 -0 -1 -0 -0 -0 -0 0 -0 -1 -1 -1 0 6 11 9 6 6 12 16 17 16 10 10 10 10 11 11 9 8 11 17 20 21 21 22 23 23 23 24 23 24 26 25
2 1 -1 0 0 -0 -0 0 1 1 1 2 2 1 0 -0 -1 -1 -1 -1 -1 -0 0 -0 -1 -1 -1 -1 -1 -1 -1 -0 3 10 13 14 14 15 16 17 18 18 18 14 11 14 19 20 20 21 21 21 21 22 22 23 23 24 24 25 22 21
-0 -1 -1 -1 -1 -1 -1 -1 -0 -0 1 1 1 1 0 -0 -1 -2 -2 -1 -1 -0 -0 -0 -0 -1 -1 -1 -0 -1 -1 -1 -1 1 8 13 14 15 16 16 17 17 17 18 17 15 13 16 19 20 20 20 21 21 22 22 23 23 24 25 25 19
-1 -1 -2 -2 -2 -2 -1 -2 -1 0 1 1 1 1 -0 -0 -1 -2 -2 -1 -1 -0 -0 -0 -1 -1 -1 -2 -2 -1 -1 -1 -1 -2 -1 4 11 13 14 15 16 16 17 17 17 18 17 17 18 19 20 20 21 21 22 22 23 24 25 25 21 18
-1 -1 -2 -3 -3 -2 -2 -2 -1 -0 1 1 1 1 -0 -1 -1 -1 -1 -1 -1 -1 -1 -1 -1 -1 -1 -0 -0 -0 -0 -0 -0 -1 -0 -1 -0 2 7 12 14 15 15 16 16 17 17 17 18 19 20 21 21 22 23 23 21 24 25 23 19 18
-2 -3 -2 -1 -1 -2 -3 -2 -0 0 1 1 0 -0 -1 -1 -1 -1 0 1 1 -1 -1 -1 -0 -0 -0 -0 -0 -0 -0 0 1 1 0 -1 -1 -1 -1 0 3 10 14 11 13 15 18 18 19 20 20 21 21 22 23 23 18 17 18 19 19 19
-4 -4 -3 -2 -3 -3 -3 -1 1 1 1 0 -0 -1 -1 -1 -1 -1 -1 -1 -0 -1 -1 -1 -1 -0 -0 -0 0 1 1 2 2 2 1 2 2 1 1 1 3 4 10 15 16 17 17 18 19 19 20 21 22 22 22 16 15 16 17 17 18 18

ECMWFFLT1_sfc_temp_027.txt.gz
Temp
34 33 34 35 34 34 34 35 34 34 33 33 34 34 34 33 33 32 32 31 33 34 32 32 34 34 35 36 38 38 36 35 35 34 34 34 34 34 33 32 32 33 34 34 35 37 37 36 36 35 35 35 35 36 36 36 35 35 35 37 36 37
36 37 36 34 35 35 34 34 33 34 35 34 33 32 31 32 32 33 33 33 34 33 30 30 30 30 30 31 32 36 35 36 36 35 34 34 34 33 33 33 32 32 31 32 33 34 36 37 38 38 36 36 36 36 35 36 36 35 35 36 36 36
33 34 34 35 34 34 33 32 33 33 32 32 32 31 31 32 32 33 34 35 35 33 30 31 30 31 29 31 29 32 31 32 34 34 32 34 35 33 33 32 32 33 33 33 33 32 32 33 35 36 37 36 36 36 36 36 35 34 34 34 35 35
32 34 34 34 34 34 34 33 30 31 31 30 30 30 30 30 31 30 32 33 33 31 28 30 29 29 28 29 28 29 28 28 30 30 30 31 32 32 31 32 32 32 31 31 32 33 33 33 32 33 35 35 35 36 37 37 36 35 35 34 34 35
33 33 33 32 32 32 32 32 31 31 31 30 30 29 31 30 31 30 29 29 29 29 28 29 29 29 29 29 29 29 28 28 28 28 28 29 30 30 30 30 30 31 30 31 31 31 32 32 32 34 34 34 34 35 35 36 35 36 36 36 36 36
32 31 31 32 31 31 32 31 30 30 31 31 29 31 31 31 31 31 30 29 29 29 28 28 28 28 28 28 28 27 28 27 28 28 28 29 28 29 30 29 30 30 29 30 30 30 31 31 31 32 32 33 34 34 34 35 35 35 35 35 35 36
31 31 31 31 30 31 31 31 31 31 32 30 31 32 31 32 29 30 29 29 29 28 28 28 28 28 28 28 29 29 29 27 28 27 27 28 29 29 29 30 29 29 29 30 30 30 30 31 31 31 31 32 32 33 34 34 34 34 35 35 34 35
30 30 30 30 30 31 32 31 31 31 31 32 30 31 31 32 29 28 28 28 28 28 27 27 27 28 27 27 28 29 29 29 28 29 28 27 28 29 29 29 29 29 29 29 29 29 30 30 30 31 31 31 31 31 32 32 33 34 35 34 34 34
30 31 30 30 30 30 30 30 31 30 30 32 30 30 29 31 29 28 28 27 27 28 30 29 29 29 29 28 29 29 28 28 28 28 28 28 27 28 29 30 30 30 29 29 29 29 30 30 30 30 31 31 31 31 31 31 31 32 33 34 35 34
30 30 31 29 30 30 30 30 30 31 29 30 30 30 29 30 29 29 29 28 28 28 29 29 29 30 30 30 30 30 29 29 28 28 28 27 27 28 28 28 29 29 29 30 30 30 29 29 29 30 30 30 30 30 30 31 31 31 31 32 32 33
30 31 30 30 29 30 30 30 29 29 29 31 30 29 30 28 30 30 29 28 28 29 28 29 29 29 29 29 30 30 30 30 29 28 28 27 27 28 27 27 28 28 28 28 29 29 29 29 30 30 31 30 30 31 30 30 30 31 31 31 31 32
30 30 29 29 29 30 29 29 29 29 31 31 29 30 28 29 30 30 28 28 27 27 27 28 28 29 29 29 30 30 30 29 29 29 29 28 27 26 26 26 26 26 26 26 27 28 29 29 30 32 34 35 33 32 32 32 31 31 31 31 31 31
30 29 29 30 30 29 30 31 30 30 29 29 29 28 27 29 30 29 27 28 27 28 28 29 29 29 29 29 29 28 28 28 28 28 27 27 27 27 27 27 26 26 26 26 26 26 27 28 29 32 34 35 36 34 32 31 31 32 32 31 31 31
30 30 30 31 30 29 29 30 30 28 29 28 28 27 27 28 27 26 26 25 27 27 27 28 28 27 28 27 26 26 26 26 26 26 26 26 26 27 26 26 26 26 26 26 26 25 26 26 30 32 33 34 34 35 32 31 31 31 32 32 31 32
29 30 30 29 30 30 29 29 30 30 27 29 27 26 27 26 26 25 26 26 25 26 26 26 25 25 25 25 25 24 24 24 24 24 24 24 25 24 24 25 25 25 25 25 24 24 25 25 29 31 32 32 33 33 33 30 30 30 31 31 31 32
28 29 30 30 29 30 29 30 30 29 28 27 26 27 26 25 25 25 25 25 25 25 25 24 22 23 23 23 22 22 22 22 22 23 23 23 23 22 22 23 22 23 23 23 23 23 24 24 27 30 30 31 31 32 32 29 29 29 30 30 31 31
32 31 31 32 31 28 28 28 27 27 27 26 26 25 24 24 23 23 23 24 24 23 22 22 21 20 20 20 20 20 20 20 20 20 20 21 20 20 20 20 20 20 21 21 21 21 21 23 27 28 29 30 31 31 31 27 27 28 28 29 30 30
28 29 30 30 30 29 27 25 25 25 24 24 23 23 22 21 21 22 22 22 21 20 21 19 18 18 17 18 17 17 17 17 17 17 18 18 18 18 18 18 18 18 18 18 18 18 18 20 25 26 27 28 29 30 26 25 25 25 25 26 27 28
28 29 28 26 25 25 24 24 23 23 22 21 21 19 19 19 19 20 20 19 18 18 17 17 16 15 14 14 14 13 13 13 13 13 14 13 13 13 13 14 14 15 15 15 16 15 16 17 21 24 26 26 28 26 23 23 23 23 23 24 25 26
27 27 26 24 23 23 22 22 21 20 19 18 18 17 17 16 17 17 16 16 15 15 15 14 12 11 11 10 9 9 10 11 11 10 11 10 10 10 11 11 11 12 12 12 12 13 13 14 18 22 23 24 24 24 20 20 20 20 21 21 22 23
26 25 24 23 21 21 21 19 18 17 16 16 16 15 14 15 15 14 13 14 14 13 11 11 10 9 8 7 7 7 7 7 7 8 9 8 8 8 9 9 8 8 9 10 11 14 12 10 13 17 19 20 21 20 18 18 18 18 19 20 20 22
24 23 21 20 20 19 17 16 16 13 14 14 14 12 12 13 12 13 12 12 11 10 8 8 7 7 6 6 6 6 6 7 6 6 6 6 6 6 6 7 6 6 6 8 8 8 9 8 9 12 18 19 20 21 18 17 16 16 17 18 19 19
23 21 20 20 19 17 15 14 12 12 12 12 11 10 11 11 11 10 9 9 8 6 6 5 5 4 5 5 5 5 5 5 5 5 4 4 4 4 4 4 4 4 4 5 6 7 7 8 9 10 17 18 20 20 19 15 15 16 16 16 16 17
20 18 17 17 16 15 13 11 9 9 10 8 8 8 10 9 9 8 6 5 5 4 3 3 3 4 4 4 4 3 3 4 4 4 3 4 3 2 2 2 3 3 3 4 5 6 6 9 12 10 15 18 19 20 21 17 16 17 16 15 15 17
17 16 15 15 13 14 13 7 6 6 6 6 8 9 8 7 7 6 4 3 3 2 2 2 2 2 3 2 3 2 2 2 2 2 2 2 1 1 1 1 2 2 2 3 4 5 6 7 9 14 12 16 18 19 20 20 19 21 18 16 14 15
15 14 13 13 11 10 8 5 4 4 4 5 8 8 5 4 4 2 2 1 1 1 1 1 1 1 1 1 2 1 1 1 1 1 1 1 1 0 0 1 1 1 1 1 2 4 6 7 7 11 15 14 18 19 20 21 21 21 17 16 15 15
11 10 10 10 8 9 5 5 2 2 2 5 5 4 3 2 1 0 -0 -0 -0 -0 0 0 0 0 0 0 1 -0 0 0 0 -0 1 1 1 0 -1 -0 0 -0 -0 0 1 2 4 5 6 7 11 16 17 19 19 20 21 20 21 16 15 15
6 6 6 8 7 6 6 4 2 -1 3 5 3 3 2 0 -1 -1 -1 -1 -0 -0 0 -0 -0 0 0 0 0 -0 1 0 0 -0 -0 0 -0 -0 -1 -1 -1 -1 -1 -0 1 1 3 4 5 6 7 10 13 14 16 18 19 19 20 20 17 20
5 5 4 3 5 4 4 1 0 2 3 1 3 2 -0 -3 -2 -1 -1 -1 -1 -0 -0 -1 -1 0 1 0 1 1 1 1 0 -0 -1 -1 -1 -1 -1 -1 -1 -0 0 0 2 3 4 4 5 6 7 8 8 8 9 11 11 16 18 15 13 16
5 3 2 3 5 3 1 -1 -1 -0 -1 -0 1 -2 -3 -3 -2 -2 -2 -2 -1 -1 -1 -1 1 1 -0 -0 -1 -1 -0 -0 -0 -1 -1 -1 -1 -1 -1 -0 1 1 2 3 4 5 6 7 8 9 9 9 10 10 11 11 11 10 11 11 12 12
2 2 1 1 2 -0 -2 -4 -2 -2 -1 1 -1 -3 -4 -3 -2 -1 -2 -2 -1 -2 -0 -1 -1 -1 -1 -1 -1 -1 -0 -1 -1 -1 0 3 4 3 3 3 5 7 8 9 8 8 7 8 9 11 16 16 19 17 16 15 14 14 12 14 17 16
1 -0 -1 0 0 -2 -4 -4 -2 -2 0 -2 -3 -4 -5 -3 -2 -3 -3 -2 -2 -2 -1 -1 -1 -1 -1 -1 -2 -2 -1 5 10 9 6 5 11 15 16 16 10 11 12 11 12 12 10 9 12 19 22 21 21 22 22 22 22 22 21 22 24 23
0 -1 -3 -2 -2 -4 -4 -3 -2 -3 -3 -2 -1 -3 -4 -4 -3 -3 -2 -2 -2 -1 -1 -1 -2 -1 -1 -1 -1 -1 -2 -1 1 10 13 13 14 15 16 17 18 18 18 14 11 14 19 20 20 20 20 21 21 22 22 22 23 24 24 24 20 18
-2 -2 -3 -3 -4 -5 -5 -4 -3 -3 -3 -3 -4 -4 -5 -5 -4 -3 -3 -2 -2 -1 -1 -1 -1 -1 -2 -1 -1 -1 -2 -2 -2 -0 8 13 13 14 15 16 17 17 18 18 17 15 13 17 20 20 19 21 22 23 23 23 23 24 24 25 25 18
-1 -2 -4 -5 -6 -6 -5 -5 -3 -3 -4 -3 -4 -5 -5 -4 -4 -3 -3 -2 -2 -1 -1 -1 -2 -2 -2 -2 -2 -2 -1 -2 -2 -3 -2 3 11 14 14 15 16 17 17 18 18 19 18 18 19 20 20 21 21 22 22 23 23 23 24 24 20 16
-3 -3 -4 -7 -7 -6 -6 -5 -4 -4 -4 -5 -5 -4 -5 -4 -4 -4 -3 -2 -2 -2 -2 -2 -2 -2 -2 -1 -1 -2 -1 -1 -1 -1 -1 -1 0 3 8 12 14 15 16 16 17 18 19 19 19 20 20 20 21 22 23 23 20 23 25 22 17 16
-5 -6 -5 -3 -4 -5 -6 -5 -3 -4 -4 -6 -6 -6 -5 -4 -3 -3 -2 -0 -0 -2 -2 -2 -1 -2 -2 -1 -1 -1 -1 -1 0 1 0 -0 -1 -1 -0 1 4 10 14 12 14 16 19 19 20 20 20 20 21 22 23 23 17 15 16 16 16 16
-6 -7 -6 -6 -7 -7 -6 -4 -3 -3 -4 -7 -7 -7 -5 -4 -3 -3 -3 -2 -1 -2 -2 -2 -2 -2 -2 -2 -1 0 1 1 1 1 0 1 1 1 1 2 3 5 10 15 16 17 17 18 19 20 21 21 22 22 22 15 14 14 14 15 16 16

ECMWFFLT1_sfc_temp_030.txt.gz
Temp
34 33 33 32 32 34 34 34 34 33 33 32 31 30 29 29 30 31 32 31 32 32 30 30 31 30 31 30 31 32 32 32 32 32 32 32 32 32 31 31 29 29 30 29 30 31 31 31 32 33 34 33 32 32 32 32 32 32 32 34 33 34
35 36 36 36 36 36 36 35 34 34 32 31 30 30 29 31 30 31 31 30 30 30 29 28 28 28 28 28 28 31 28 29 31 32 31 30 31 31 31 31 31 31 31 31 30 29 29 30 30 30 30 31 32 32 32 32 31 31 31 32 33 34
35 35 35 35 34 34 33 34 34 32 32 32 32 32 30 29 28 28 29 28 28 28 29 29 28 28 27 29 27 28 28 27 28 28 28 28 30 29 30 30 30 30 30 31 32 31 31 30 30 28 28 29 30 31 31 32 32 31 31 31 31 32
36 35 34 34 34 34 34 33 31 30 31 30 29 29 29 29 30 29 28 28 27 27 28 29 28 27 26 27 27 27 28 28 28 27 27 28 29 27 28 28 28 28 29 29 30 30 30 31 32 31 30 29 28 28 31 31 30 30 30 30 31 32
36 36 35 34 34 34 33 31 30 29 29 28 28 28 31 29 30 28 27 27 27 29 27 27 27 26 26 27 27 26 27 27 27 26 27 28 28 27 27 27 27 28 28 28 29 29 29 30 30 30 31 31 30 30 30 30 28 29 29 29 30 31
33 33 32 32 30 31 31 31 30 30 29 29 28 29 29 28 28 27 27 27 28 27 26 27 26 27 27 28 27 27 27 26 27 26 26 27 27 27 28 26 27 27 26 27 27 28 28 29 29 30 30 30 29 30 30 31 31 31 29 29 29 30
31 32 31 31 31 30 30 30 30 30 30 28 29 30 29 29 27 27 27 27 29 28 28 28 25 27 26 26 26 26 26 26 26 26 26 27 27 26 27 27 25 26 26 27 27 27 27 28 28 28 29 29 29 29 30 30 31 31 31 31 31 31
30 30 31 32 31 31 30 29 29 29 29 29 28 28 28 28 26 26 26 25 27 28 26 26 25 25 25 25 25 26 26 27 26 26 26 25 26 26 26 26 27 26 26 26 26 27 27 28 28 28 28 28 28 29 29 29 30 30 31 31 31 31
30 31 31 32 30 29 30 30 29 29 29 30 29 28 29 29 28 26 25 25 25 26 27 27 27 27 27 27 26 26 26 26 26 25 26 26 25 25 26 26 26 27 27 27 27 27 27 27 27 27 28 28 28 28 28 28 29 29 30 30 31 31
30 30 31 29 30 29 29 29 30 30 30 31 30 29 28 29 28 26 26 26 27 27 27 27 26 26 27 27 27 27 26 27 26 26 26 25 25 25 25 26 27 27 27 27 27 27 27 27 27 27 27 27 27 27 27 28 28 28 29 29 30 31
31 30 29 29 29 30 30 30 29 28 28 28 29 28 29 28 27 27 27 27 27 26 26 26 26 26 26 26 27 27 27 27 27 27 26 26 26 27 26 27 26 26 26 26 26 26 27 27 27 28 27 27 27 28 27 28 28 28 28 29 29 30
30 30 29 29 29 30 30 29 30 30 30 30 29 28 28 26 28 28 26 26 26 25 25 26 26 26 26 26 26 26 25 25 25 25 25 25 25 25 26 25 26 25 25 25 25 26 26 27 27 29 31 31 29 28 28 28 27 27 28 28 28 29
29 29 28 30 30 30 31 31 31 31 29 28 28 27 26 27 26 25 24 25 25 24 25 25 25 25 25 24 24 23 23 23 23 22 22 22 23 23 23 24 23 24 24 24 24 24 25 25 26 29 31 31 32 29 27 26 26 26 26 26 27 27
28 28 29 30 30 29 28 28 28 28 28 27 26 26 25 25 24 24 24 24 24 24 24 24 24 23 22 21 20 20 19 20 19 19 19 19 20 21 21 21 21 22 22 22 22 22 22 23 26 28 29 30 30 30 27 26 25 25 26 26 26 26
28 29 28 28 28 27 27 26 26 26 26 26 25 24 25 23 23 23 23 23 23 23 23 22 20 19 18 18 17 17 17 17 17 17 17 17 18 18 18 19 19 19 20 20 19 19 20 20 24 26 27 27 28 28 28 25 25 24 24 24 24 25
25 25 26 26 26 26 27 26 26 25 24 24 23 23 22 22 22 21 21 20 20 20 20 18 16 16 15 16 15 15 15 15 14 15 15 16 16 15 15 15 15 16 16 16 16 16 17 17 20 24 25 25 26 26 26 23 23 23 23 23 23 24
26 26 26 27 26 25 26 25 24 24 23 23 22 21 20 20 19 19 19 19 19 17 15 16 14 13 14 13 13 12 12 12 12 12 13 13 13 12 12 12 11 12 12 12 13 13 13 14 20 21 22 23 23 24 24 20 20 20 21 22 23 23
28 28 28 26 25 24 23 23 23 22 21 20 20 18 18 17 15 18 16 16 15 14 15 12 11 11 10 11 10 9 10 10 9 9 10 10 10 10 10 10 10 10 10 10 10 10 9 11 17 19 20 21 22 23 18 17 16 16 16 16 18 20
27 27 25 24 23 23 22 22 21 20 18 17 16 14 15 15 14 15 14 13 12 12 11 11 10 9 8 8 7 6 6 7 7 7 8 7 7 7 7 7 8 8 8 8 8 7 8 8 13 17 19 19 21 19 15 15 15 15 15 15 17 18
26 24 23 22 21 21 21 19 18 17 16 14 14 12 14 12 13 13 11 11 9 10 10 9 6 6 6 5 4 5 6 6 6 6 7 6 5 5 6 6 6 7 7 6 6 6 6 7 11 16 17 18 19 18 15 14 13 13 14 14 16 18
24 22 22 21 19 19 17 15 14 14 13 13 13 12 10 11 11 10 9 9 9 9 7 6 5 5 4 3 4 4 3 4 4 5 5 5 5 4 5 5 4 4 5 5 5 9 8 6 9 14 16 17 18 17 14 14 13 13 13 14 14 16
22 21 20 19 19 16 14 13 14 11 12 12 12 10 9 10 9 9 9 9 8 7 4 4 3 3 3 3 3 3 3 4 3 3 4 4 4 3 3 3 3 2 3 4 4 5 6 5 6 9 15 17 18 19 15 14 13 12 12 13 13 13
23 21 20 19 16 14 13 11 10 10 10 10 10 8 10 9 8 8 7 7 5 3 3 2 1 2 2 2 2 3 3 3 3 3 2 2 2 2 2 1 1 1 2 3 4 4 5 5 5 7 15 16 18 19 18 14 13 13 13 12 13 13
18 16 16 15 14 12 11 8 8 7 8 8 6 7 8 8 7 6 3 2 1 1 1 -0 0 1 1 1 1 1 1 2 2 2 1 2 1 0 0 0 1 0 1 2 3 4 4 6 9 7 12 16 17 19 20 15 14 15 14 13 13 14
16 15 14 13 11 12 10 4 4 5 6 4 6 7 7 7 5 5 2 0 -0 -1 -1 -1 -1 -1 -0 -1 0 -0 -0 1 0 0 0 -0 -0 -1 -1 -1 -0 -0 -0 1 2 3 4 4 6 12 10 15 18 19 19 20 18 21 18 15 13 14
15 14 12 11 10 8 8 3 3 3 3 5 8 7 5 2 2 0 -2 -2 -2 -2 -2 -2 -2 -2 -2 -2 -1 -1 -2 -1 -1 -1 -1 -0 -1 -1 -2 -1 -1 -1 -1 -1 0 2 3 4 5 9 14 13 17 19 20 20 21 22 18 17 16 16
13 12 10 9 7 7 3 2 0 1 -0 4 5 3 1 -0 -2 -4 -5 -4 -4 -4 -4 -4 -3 -3 -3 -3 -2 -3 -1 -1 -1 -2 -1 -1 -1 -2 -2 -2 -2 -2 -2 -1 -1 1 2 4 5 6 10 15 17 19 20 21 21 22 23 18 16 16
9 8 8 8 6 6 3 2 1 -3 0 4 3 1 -0 -3 -6 -6 -5 -5 -5 -4 -4 -4 -3 -3 -3 -2 -2 -2 -1 -2 -1 -2 -2 -2 -2 -2 -3 -3 -2 -2 -2 -1 1 3 5 7 7 8 9 11 14 15 18 19 20 20 21 21 19 21
7 5 5 5 4 2 1 -1 -0 0 1 -1 2 1 -3 -7 -7 -5 -5 -5 -4 -4 -4 -5 -4 -3 -2 -3 -2 -2 -2 -1 -1 -2 -2 -2 -3 -3 -2 -1 -1 -0 1 1 3 5 6 8 9 10 11 12 12 11 12 13 14 17 19 16 15 17
7 4 3 4 5 3 0 -2 -2 -2 -2 -3 -1 -5 -7 -7 -7 -6 -6 -6 -6 -5 -5 -5 -1 -1 -2 -2 -3 -3 -2 -2 -1 -2 -3 -2 -2 -1 -0 1 1 1 2 4 6 8 8 9 10 11 11 12 13 13 14 14 13 12 11 11 12 12
3 2 2 2 2 -0 -2 -4 -4 -5 -3 -0 -4 -6 -8 -7 -6 -6 -7 -6 -5 -6 -3 -4 -4 -4 -3 -3 -3 -3 -2 -2 -2 -1 -0 3 3 3 3 3 4 6 8 9 9 9 9 10 10 12 17 17 20 18 18 17 17 17 17 17 20 16
1 0 -0 1 -0 -3 -4 -5 -4 -5 -1 -4 -6 -8 -9 -7 -7 -10 -7 -6 -7 -6 -5 -5 -4 -5 -4 -4 -4 -3 -2 4 10 8 6 5 11 15 17 16 11 12 13 12 13 13 11 11 13 20 22 22 22 23 23 23 24 25 23 25 26 24
-1 -3 -3 -2 -3 -5 -5 -5 -4 -5 -5 -4 -4 -6 -8 -9 -7 -7 -6 -5 -6 -4 -3 -4 -4 -4 -4 -3 -3 -3 -3 -3 1 9 12 13 13 15 16 17 18 19 19 16 13 15 20 20 21 21 21 22 21 22 24 24 24 25 25 26 23 19
-1 -2 -3 -4 -4 -6 -7 -6 -5 -6 -5 -6 -7 -7 -8 -8 -8 -7 -6 -6 -5 -3 -3 -4 -3 -3 -3 -3 -3 -3 -3 -4 -4 -2 7 12 13 14 15 16 17 18 18 18 17 15 14 17 20 21 22 22 22 22 22 24 24 24 25 25 25 17
-0 -2 -4 -5 -6 -7 -7 -6 -5 -6 -7 -6 -8 -8 -9 -9 -8 -7 -6 -6 -5 -4 -3 -3 -4 -4 -4 -4 -4 -4 -3 -4 -4 -5 -3 2 11 13 14 14 15 15 16 17 17 18 18 18 19 20 21 21 22 22 21 23 24 24 25 24 18 14
-2 -3 -4 -7 -8 -7 -8 -7 -6 -6 -6 -8 -9 -8 -10 -8 -8 -8 -7 -6 -5 -5 -5 -4 -4 -4 -4 -3 -3 -3 -3 -3 -3 -3 -2 -2 -1 2 7 12 13 14 14 15 16 17 18 18 19 19 20 20 21 22 22 22 19 21 22 20 14 13
-4 -5 -5 -5 -6 -7 -8 -6 -5 -7 -7 -9 -10 -11 -11 -10 -7 -8 -5 -2 -2 -6 -5 -4 -3 -3 -4 -3 -4 -3 -3 -3 -1 -1 -1 -2 -2 -2 -2 -1 3 9 13 11 13 15 17 17 18 18 19 20 20 20 20 18 12 11 11 13 13 14
-5 -7 -6 -6 -8 -9 -7 -6 -5 -5 -6 -10 -13 -13 -11 -8 -7 -7 -6 -5 -4 -4 -4 -4 -5 -3 -4 -4 -3 -1 -1 -1 -1 -1 -2 -1 -1 -1 -2 -0 1 3 8 14 14 15 15 16 16 17 19 18 17 16 16 8 6 7 7 8 9 10

ECMWFFLT1_sfc_temp_033.txt.gz
Temp
30 30 31 31 30 31 31 31 32 33 33 31 31 30 29 29 29 29 29 29 30 30 28 28 28 28 28 27 28 29 29 29 29 29 28 29 29 29 29 29 29 29 28 27 27 27 27 27 28 28 29 28 29 29 29 29 29 29 29 30 30 31
32 32 32 32 33 33 33 33 33 34 33 32 31 31 31 32 32 32 32 32 32 32 31 28 27 27 28 27 29 31 29 29 29 29 29 29 29 28 28 28 29 29 29 29 29 29 29 29 28 27 27 27 26 27 28 29 28 28 28 29 30 30
33 33 34 34 33 33 33 34 35 33 33 33 33 33 30 31 30 29 30 29 29 29 29 29 28 28 28 28 27 30 28 28 29 28 27 27 29 27 28 28 27 27 27 27 28 28 28 28 28 29 28 28 28 27 26 27 27 27 28 28 29 30
35 35 33 31 31 31 31 31 31 31 30 29 29 29 30 30 31 29 29 28 27 28 29 29 28 28 27 27 25 27 26 26 27 26 27 27 28 27 27 28 28 28 27 27 28 28 28 28 28 28 28 27 28 28 29 28 27 27 27 27 27 28
36 35 34 34 34 34 33 32 31 31 30 30 30 29 31 28 30 28 27 27 27 28 27 27 27 26 26 27 26 26 26 26 26 26 26 27 27 26 26 26 26 26 26 26 27 27 27 28 27 28 27 27 27 27 27 28 27 27 26 27 27 27
33 32 31 32 30 30 31 31 31 30 29 29 28 28 29 28 27 27 26 27 28 27 26 27 25 26 25 27 25 25 26 25 26 26 26 26 26 26 27 25 25 25 25 25 25 25 26 26 27 27 26 26 26 26 26 27 27 27 26 26 27 27
30 31 31 31 31 30 30 30 29 28 29 27 28 29 29 28 27 26 27 26 28 28 28 28 25 26 25 24 24 25 25 25 25 25 24 25 25 25 25 25 24 25 25 25 25 25 25 26 25 25 26 26 26 26 26 26 26 26 27 27 27 28
31 31 31 31 31 31 30 30 30 29 29 29 29 30 29 29 27 26 27 25 27 27 27 25 24 25 24 24 24 24 25 24 24 24 24 24 24 24 24 24 24 24 24 25 25 25 25 25 25 25 25 25 25 25 26 26 26 26 26 27 27 27
31 31 31 32 31 30 30 30 30 29 29 29 28 28 30 29 28 27 26 25 26 25 25 25 26 26 25 25 25 24 24 24 24 24 24 24 23 24 24 24 24 24 24 24 24 25 25 25 25 25 25 25 25 25 25 25 25 26 26 27 27 27
31 31 31 30 31 29 29 29 30 30 30 30 30 29 28 29 28 26 26 25 25 25 26 25 25 25 25 25 24 24 24 24 23 23 23 23 23 23 23 23 23 23 23 23 24 24 24 24 24 24 24 25 25 25 25 25 25 25 25 26 26 27
32 31 29 30 29 29 29 29 28 28 29 29 30 29 28 27 26 26 25 25 25 25 25 25 25 25 24 23 23 22 22 22 22 22 21 21 21 22 22 22 22 21 21 22 22 22 23 23 23 24 24 24 24 25 24 24 24 24 24 24 25 25
31 30 29 29 29 29 29 29 29 29 30 30 28 27 27 25 25 25 24 24 24 24 24 24 23 23 22 22 21 21 20 20 20 19 19 19 18 18 19 19 19 20 19 19 20 20 20 21 22 23 26 27 24 24 23 23 23 23 23 23 23 23
29 28 28 29 29 30 30 31 31 29 27 28 27 26 24 24 24 24 23 23 23 23 22 22 21 21 20 20 19 17 17 18 16 16 16 16 16 16 16 17 17 17 18 17 17 17 17 18 19 22 24 25 26 24 22 21 21 22 21 21 21 21
28 28 29 29 30 30 29 29 28 27 28 25 24 24 24 24 23 22 21 22 22 21 20 20 18 17 16 16 15 15 13 14 13 13 13 13 13 14 14 14 15 15 15 15 15 14 15 15 18 21 22 24 24 25 22 21 20 20 20 20 20 20
29 29 29 29 30 29 29 29 27 28 27 25 25 23 22 21 21 20 19 19 19 18 17 16 14 13 12 13 12 12 11 11 11 10 10 10 11 12 11 13 12 12 12 12 12 12 12 13 17 19 21 22 23 24 23 20 19 18 18 19 19 19
28 29 29 30 30 30 29 28 28 26 25 24 22 21 20 20 19 18 17 16 17 15 15 14 11 11 10 10 10 10 9 9 9 9 9 9 10 9 9 9 9 10 10 10 10 10 10 11 14 19 21 21 22 22 22 19 18 18 18 17 17 17
27 27 25 26 26 25 25 24 24 23 22 21 20 18 18 17 17 16 17 15 14 13 12 12 11 9 9 9 8 7 7 7 7 7 8 7 8 7 7 7 6 7 7 7 8 8 8 9 16 18 19 20 21 21 21 18 17 16 15 16 16 16
28 29 28 25 24 24 25 24 23 22 19 17 18 16 16 14 14 14 14 12 11 11 13 10 8 7 6 8 6 5 6 6 5 5 6 6 6 6 6 6 6 6 5 6 6 6 6 8 15 17 18 19 20 21 17 16 14 14 14 14 15 16
30 28 25 24 24 24 23 22 20 18 16 15 15 13 13 13 11 12 12 10 10 9 10 10 8 6 5 5 4 4 4 5 4 4 5 4 4 5 4 4 4 5 5 5 5 5 5 5 11 15 17 18 19 18 14 14 13 13 13 14 15 16
25 24 25 23 22 22 21 18 18 17 15 13 12 10 12 10 10 10 9 9 8 9 8 8 5 4 3 2 2 2 4 4 4 3 3 3 3 3 3 3 3 4 4 4 3 4 4 4 9 15 16 17 18 18 14 13 12 12 12 13 15 16
25 24 22 23 21 20 17 15 14 15 13 12 12 10 9 10 10 8 8 9 9 8 6 5 4 3 1 1 2 1 1 1 2 3 2 2 1 2 2 3 2 2 2 3 3 7 6 4 7 13 15 16 18 16 14 13 13 12 12 13 13 15
22 21 22 21 21 16 14 13 14 11 12 11 11 9 7 10 8 9 8 8 7 6 4 3 2 1 -0 1 1 1 1 1 1 0 1 1 1 1 1 1 1 0 1 2 2 3 4 3 4 7 14 16 18 19 15 14 12 11 12 12 12 12
25 24 23 21 18 14 12 12 13 12 10 10 10 7 9 8 8 7 6 7 4 3 2 1 0 -1 -1 -0 -0 1 0 0 1 1 -0 -1 -0 -1 -0 -1 -0 -0 0 1 2 2 3 3 4 5 14 16 18 19 18 14 13 13 13 12 13 13
21 19 17 16 15 13 11 11 12 10 9 7 6 6 8 7 6 6 3 2 2 1 -2 -3 -3 -2 -2 -2 -2 -2 -1 -1 -1 -1 -1 -1 -1 -2 -2 -1 -1 -1 -0 1 2 2 2 5 8 6 11 16 17 19 20 16 15 16 14 14 14 14
19 19 18 14 12 12 11 8 8 6 6 6 6 7 7 6 5 4 2 1 -1 -3 -3 -4 -4 -3 -3 -3 -2 -3 -3 -2 -3 -3 -3 -3 -3 -3 -3 -2 -1 -1 -1 -0 1 2 2 3 4 11 10 15 18 19 20 20 19 21 19 16 15 15
20 18 14 12 11 10 10 8 7 5 4 7 8 6 3 1 2 0 -1 -3 -4 -4 -5 -5 -6 -4 -5 -4 -4 -4 -4 -4 -4 -4 -4 -3 -3 -3 -3 -3 -2 -2 -2 -2 -1 1 2 4 5 9 14 15 18 19 20 21 22 23 19 18 17 18
19 16 12 10 8 8 5 4 6 3 2 5 6 3 1 -1 -3 -4 -5 -6 -8 -8 -8 -8 -7 -6 -6 -6 -5 -5 -4 -4 -5 -4 -5 -4 -4 -4 -4 -3 -3 -3 -3 -2 -1 0 3 5 8 9 12 17 18 20 21 22 22 23 23 19 18 18
13 12 10 8 7 7 4 3 3 2 2 4 3 0 -1 -4 -7 -7 -7 -9 -9 -7 -8 -8 -6 -6 -5 -5 -5 -4 -4 -4 -4 -4 -4 -4 -4 -4 -4 -4 -3 -3 -2 -1 1 3 6 8 9 10 11 14 16 18 19 21 22 22 23 22 21 23
12 11 10 9 6 5 3 0 1 1 1 1 2 0 -4 -9 -8 -6 -7 -7 -7 -8 -9 -8 -7 -5 -5 -7 -5 -5 -4 -3 -4 -4 -4 -4 -5 -4 -4 -2 -1 -1 1 2 4 6 8 9 10 11 13 14 14 14 16 16 16 19 21 18 17 19
14 12 9 9 7 5 3 1 0 -1 -2 -2 -0 -5 -8 -7 -7 -7 -8 -9 -10 -8 -8 -8 -3 -2 -4 -4 -5 -5 -5 -4 -4 -5 -5 -4 -3 -3 -1 0 1 2 3 3 6 8 9 9 11 13 13 14 14 15 17 17 17 17 17 16 17 16
13 11 9 9 6 4 2 -1 -2 -4 -2 0 -5 -7 -8 -6 -6 -8 -10 -10 -9 -9 -6 -6 -6 -6 -5 -5 -6 -5 -4 -4 -4 -3 -2 1 2 1 0 0 2 5 8 9 10 10 9 11 11 13 18 18 21 19 18 18 18 19 19 21 24 22
11 8 6 6 3 2 1 -2 -3 -5 -1 -4 -6 -7 -9 -7 -9 -11 -11 -9 -11 -9 -8 -8 -7 -8 -6 -6 -6 -6 -5 2 8 7 5 5 11 14 16 16 12 13 13 13 13 14 12 11 13 19 21 22 22 23 23 23 23 24 23 24 25 23
6 4 3 2 1 0 -1 -2 -4 -5 -5 -3 -4 -6 -7 -9 -8 -9 -8 -10 -9 -6 -6 -8 -6 -6 -6 -6 -5 -6 -5 -4 -1 7 10 12 12 14 16 17 18 18 19 15 13 15 19 19 20 20 21 21 22 22 22 23 24 24 23 23 19 17
3 4 3 1 -0 -1 -3 -3 -5 -6 -6 -6 -6 -6 -7 -9 -8 -9 -8 -8 -8 -6 -5 -6 -5 -5 -6 -6 -5 -6 -6 -6 -6 -3 5 10 11 13 14 15 16 17 17 17 16 14 13 17 19 20 20 20 21 22 22 22 22 21 21 20 19 13
7 4 1 -1 -2 -4 -4 -4 -5 -6 -7 -7 -8 -9 -9 -10 -10 -8 -9 -9 -7 -6 -5 -4 -6 -6 -6 -7 -6 -7 -6 -7 -6 -6 -5 1 9 11 12 12 14 14 15 16 17 17 17 17 18 19 20 20 21 20 19 19 19 18 18 17 10 6
2 0 -2 -3 -4 -4 -5 -5 -5 -6 -6 -8 -9 -8 -8 -9 -9 -9 -10 -9 -8 -7 -7 -6 -6 -6 -6 -6 -5 -6 -5 -6 -5 -5 -5 -4 -3 -0 5 9 10 12 13 14 16 16 16 17 18 19 20 20 18 17 17 15 10 13 14 11 5 4
-1 -2 -2 -3 -4 -6 -6 -4 -5 -7 -8 -9 -9 -10 -11 -11 -9 -11 -7 -3 -3 -8 -6 -6 -4 -5 -6 -6 -6 -6 -6 -5 -3 -3 -3 -4 -5 -5 -4 -3 0 7 12 10 11 14 16 16 17 19 19 17 16 15 14 10 2 0 1 2 2 2
-2 -3 -3 -4 -5 -6 -4 -4 -4 -6 -8 -10 -12 -12 -11 -9 -9 -9 -7 -7 -6 -6 -6 -5 -7 -5 -6 -6 -6 -5 -4 -4 -3 -3 -4 -4 -4 -4 -5 -3 -2 0 6 11 12 13 14 16 17 18 17 14 14 13 11 -1 -2 -2 -2 -1 -0 -0

ECMWFFLT1_sfc_temp_036.txt.gz
Temp
29 30 30 29 29 29 28 29 29 29 28 29 29 29 29 29 29 29 29 30 31 30 29 29 29 30 29 28 28 28 29 29 28 28 27 28 28 28 28 27 27 27 27 26 26 26 26 26 26 26 26 26 26 26 26 26 26 26 26 27 27 27
30 30 30 30 30 29 29 29 28 28 28 29 28 28 28 28 29 30 30 29 30 29 28 28 28 28 29 28 29 30 29 28 28 28 28 28 28 27 27 27 27 27 27 27 27 27 26 26 26 26 25 25 25 25 25 25 25 25 25 26 26 27
30 30 30 30 29 29 29 29 30 30 29 29 31 32 32 32 32 32 29 29 30 31 31 30 30 30 29 28 28 28 26 26 27 26 25 26 27 26 26 26 26 26 26 25 26 26 26 26 26 26 26 25 25 25 25 25 25 25 25 25 25 25
30 31 31 31 30 30 30 30 30 31 30 29 29 29 29 29 28 28 27 27 28 28 28 26 25 25 25 26 26 28 26 26 26 25 26 26 26 25 25 25 25 25 24 24 24 24 24 24 24 24 24 24 25 25 26 26 25 24 24 25 24 25
31 31 31 31 31 32 32 31 32 32 31 30 29 30 28 28 28 26 27 28 28 26 25 25 26 25 25 26 25 25 25 24 24 24 24 24 24 24 24 23 23 24 23 23 23 23 23 24 23 24 23 24 24 24 24 25 24 24 24 24 24 25
30 31 32 33 33 32 31 30 29 28 28 27 27 30 29 28 27 26 27 27 27 24 25 25 24 24 24 25 24 24 24 24 24 25 24 24 24 24 23 23 23 23 22 22 23 23 23 23 23 23 23 23 23 23 23 24 24 24 24 24 24 24
31 32 33 32 32 30 29 29 29 29 29 27 29 29 28 28 25 26 26 27 27 26 26 25 23 25 24 24 24 24 24 24 24 24 23 23 23 23 23 23 22 22 22 23 22 22 22 23 23 23 23 23 23 23 23 23 23 24 24 24 24 26
32 32 31 31 31 31 30 29 29 29 29 29 27 29 27 27 25 26 26 25 27 26 25 24 24 25 25 24 24 24 23 23 23 22 23 23 22 22 22 22 22 22 21 22 22 22 22 22 22 22 22 22 22 23 23 23 23 23 24 24 24 24
31 32 31 31 31 31 31 31 30 29 29 29 27 27 28 27 26 26 25 25 25 25 25 24 25 25 24 24 24 23 23 22 22 22 22 22 21 21 21 21 21 21 21 21 21 21 21 21 21 21 21 22 22 22 22 22 22 23 23 23 23 24
31 31 31 31 31 31 30 31 31 30 30 30 29 27 26 28 26 26 25 25 24 24 25 24 24 24 24 23 23 22 21 21 20 21 21 19 20 19 19 19 19 19 19 20 20 20 20 20 20 20 20 21 21 21 21 21 21 21 21 21 22 22
31 31 31 32 31 31 30 30 29 29 29 29 29 28 27 26 26 25 25 24 25 24 23 23 24 23 22 22 21 20 20 20 19 18 17 17 17 18 18 18 18 17 17 17 17 17 18 18 18 19 20 20 20 21 20 20 20 20 19 20 20 21
31 32 32 32 32 31 30 29 29 29 29 29 28 27 26 26 25 25 24 24 24 23 22 22 22 21 21 20 19 18 17 16 15 15 15 15 14 14 15 14 15 15 14 14 14 15 15 16 17 18 22 23 21 21 20 20 20 20 20 19 19 19
31 31 31 32 31 31 30 30 30 30 29 29 28 27 25 26 24 24 23 24 22 21 20 19 19 18 17 17 16 13 13 15 12 11 10 10 11 11 12 12 13 12 12 12 12 12 13 14 15 19 22 23 24 22 21 20 20 20 20 19 18 17
29 29 30 30 30 30 30 30 30 29 29 28 28 26 24 24 24 24 22 22 21 20 19 17 16 14 14 13 11 11 9 9 8 8 8 7 8 9 9 9 10 10 11 11 11 11 11 12 15 19 20 22 23 23 21 20 19 18 19 19 18 18
30 30 30 29 30 30 30 31 29 29 30 28 26 22 23 23 23 21 20 19 18 17 16 14 12 12 10 10 9 8 7 6 8 6 6 6 6 6 6 9 8 8 9 9 9 8 10 10 14 17 20 21 23 23 22 19 19 18 17 18 18 17
28 29 30 30 30 31 30 29 30 29 27 25 22 22 22 22 20 19 18 16 16 14 14 12 10 10 9 8 6 7 5 5 5 5 4 5 6 6 6 5 6 7 7 7 7 7 8 8 12 17 20 21 21 22 22 19 18 17 17 17 16 16
28 27 27 28 28 27 27 26 26 24 23 22 22 20 20 18 18 16 16 14 13 12 9 12 9 8 8 7 6 4 4 4 3 5 5 3 5 5 4 4 3 4 4 5 5 6 6 7 14 17 19 20 21 21 21 17 16 15 15 15 15 15
28 29 29 29 27 26 27 27 24 23 20 19 20 17 17 16 15 15 13 11 11 10 11 8 7 6 5 6 3 3 5 4 2 3 3 3 3 1 3 3 1 3 3 4 4 4 4 6 13 16 18 19 20 21 17 15 14 14 14 14 15 15
29 29 26 25 26 25 25 23 22 21 18 17 16 15 14 14 13 13 12 10 10 9 9 9 6 5 4 4 3 1 2 4 2 2 1 1 2 3 2 1 2 2 2 2 2 2 3 4 9 15 17 18 20 18 14 14 13 13 13 14 14 15
25 24 25 24 23 23 21 20 20 19 18 16 13 14 13 12 13 12 10 10 7 9 8 7 4 4 2 0 -0 -0 3 1 0 -1 -1 0 1 1 0 1 1 1 1 1 1 2 2 3 8 14 16 17 18 18 14 13 13 12 13 13 15 16
25 23 23 23 22 20 18 17 17 18 17 15 13 13 13 13 12 10 9 9 8 7 5 4 3 2 1 -0 1 -1 -1 -2 -1 -1 -2 -2 -3 -1 -0 0 -0 -0 -0 0 1 5 5 3 6 11 14 17 18 17 15 14 13 12 13 13 13 15
22 21 22 22 22 18 16 16 17 17 16 14 13 12 13 13 11 10 9 8 7 5 2 2 1 1 -1 0 -1 -2 -2 -2 -3 -3 -3 -3 -2 -2 -1 -1 -1 -2 -1 0 1 1 2 2 2 6 14 16 18 19 16 15 13 12 12 13 13 13
26 25 24 24 21 16 15 16 17 16 14 13 12 14 14 11 9 8 7 7 3 1 1 -0 -0 -2 -2 -2 -3 -1 -3 -4 -1 -2 -4 -3 -3 -3 -3 -3 -3 -2 -2 -1 0 0 1 2 3 5 14 16 18 19 18 15 14 14 14 13 14 14
21 20 19 18 17 16 15 16 18 16 13 11 13 13 9 8 7 6 3 2 2 -0 -3 -4 -4 -3 -4 -5 -5 -6 -5 -4 -5 -5 -5 -4 -4 -4 -4 -4 -3 -3 -2 -0 0 0 1 3 7 5 11 16 18 19 20 17 17 18 17 16 16 16
21 21 21 17 15 15 15 15 16 13 11 13 13 9 8 7 6 5 2 0 -2 -3 -4 -5 -5 -5 -6 -7 -5 -6 -6 -6 -7 -7 -7 -6 -5 -5 -5 -5 -4 -3 -2 -2 -1 0 1 2 3 10 10 15 18 20 21 22 21 23 20 17 16 16
22 21 16 15 13 13 14 15 16 12 11 14 9 7 5 4 3 2 -1 -3 -4 -5 -6 -6 -7 -7 -8 -8 -7 -8 -8 -8 -8 -9 -9 -6 -5 -5 -5 -4 -4 -4 -4 -3 -2 -0 2 3 4 8 14 14 18 20 22 23 23 23 20 20 18 19
22 20 15 13 11 11 11 12 15 10 11 10 7 6 3 2 -1 -2 -4 -6 -8 -9 -10 -10 -10 -10 -10 -11 -8 -9 -7 -7 -9 -6 -9 -7 -6 -5 -5 -5 -5 -5 -5 -3 -2 1 4 7 9 9 13 18 19 21 22 22 23 24 24 20 20 20
16 16 15 11 9 10 8 8 11 11 9 6 5 4 2 -1 -4 -5 -6 -10 -10 -10 -10 -9 -9 -9 -9 -9 -9 -8 -8 -8 -7 -6 -6 -6 -6 -6 -6 -6 -5 -5 -4 -2 1 4 7 9 10 11 13 15 17 18 20 22 23 23 24 23 22 24
16 15 14 13 9 8 7 5 6 7 4 4 4 3 -1 -5 -4 -4 -6 -8 -9 -10 -10 -10 -10 -8 -8 -10 -9 -9 -8 -6 -7 -7 -6 -6 -6 -6 -6 -5 -4 -3 -1 1 4 7 8 9 10 12 14 15 15 15 17 18 18 21 22 20 20 21
18 17 14 14 12 8 7 5 5 1 2 2 2 -2 -4 -4 -4 -4 -6 -10 -12 -10 -11 -10 -4 -4 -7 -7 -10 -8 -8 -7 -7 -7 -6 -6 -5 -5 -4 -4 -2 -0 2 4 6 6 7 9 12 13 13 14 15 17 19 19 19 19 19 19 19 20
18 18 15 16 12 8 6 5 4 0 2 3 -2 -3 -3 -3 -4 -7 -11 -11 -11 -10 -8 -8 -8 -8 -8 -8 -11 -9 -6 -7 -6 -5 -4 -2 -1 -1 -1 -1 0 3 4 6 6 8 10 11 11 13 18 18 22 20 19 18 19 19 19 20 22 19
17 17 16 16 11 8 7 5 3 0 2 -1 -3 -3 -4 -4 -6 -10 -9 -8 -11 -11 -9 -9 -10 -12 -8 -9 -9 -9 -8 -0 6 5 2 3 9 13 15 14 10 12 13 13 14 14 12 11 13 19 21 22 22 23 24 23 23 22 19 20 21 18
15 15 14 13 8 8 7 5 1 -2 -2 -2 -3 -3 -4 -5 -5 -7 -7 -8 -8 -7 -7 -11 -9 -9 -9 -9 -8 -9 -7 -7 -3 5 10 11 11 13 15 16 17 18 18 16 13 15 19 19 20 20 20 21 22 22 22 21 20 20 18 18 14 9
12 13 14 12 7 6 4 3 -1 -2 -2 -2 -3 -3 -4 -5 -4 -5 -5 -6 -7 -5 -4 -6 -7 -7 -7 -8 -8 -8 -10 -9 -8 -6 3 8 10 12 13 14 15 17 17 17 17 15 13 16 18 19 20 21 21 20 19 19 18 16 16 15 13 2
15 14 11 6 4 3 2 1 -1 -3 -3 -4 -4 -4 -5 -6 -6 -5 -6 -8 -7 -6 -5 -5 -7 -7 -7 -9 -9 -9 -10 -9 -9 -8 -7 -1 7 9 10 12 14 15 15 15 16 17 16 16 17 19 20 20 19 18 17 17 15 13 13 11 2 -2
9 8 5 3 2 2 0 1 -2 -4 -3 -6 -5 -5 -5 -6 -6 -5 -6 -7 -7 -7 -7 -7 -7 -7 -7 -7 -7 -8 -7 -8 -8 -8 -7 -7 -6 -2 3 6 8 10 11 12 14 15 15 16 17 18 19 19 17 17 16 14 7 10 10 7 -1 -3
5 3 2 1 0 -0 -1 0 -2 -5 -5 -6 -6 -6 -6 -7 -6 -8 -6 -3 -4 -7 -7 -6 -5 -6 -7 -7 -8 -8 -8 -7 -6 -6 -6 -8 -7 -7 -7 -6 -2 3 7 7 10 12 14 15 16 17 18 17 16 15 14 9 -1 -3 -2 -2 -5 -4
2 -0 -1 -1 -2 -2 -1 -2 -5 -6 -7 -8 -8 -8 -7 -7 -7 -7 -6 -6 -5 -5 -5 -5 -7 -6 -7 -8 -8 -8 -8 -6 -6 -6 -7 -7 -6 -7 -7 -7 -5 -3 3 8 10 11 12 14 15 16 17 15 14 13 10 -4 -5 -5 -4 -4 -3 -4

ECMWFFLT1_sfc_temp_042.txt.gz
Temp
43 43 43 43 43 43 43 43 42 42 43 44 44 43 43 43 43 44 44 44 42 42 43 42 42 43 43 42 42 42 41 41 41 40 39 39 40 40 39 39 39 39 39 39 38 38 38 38 38 37 38 38 38 38 39 38 37 37 37 38 37 36
44 44 43 42 42 42 42 41 42 42 43 43 44 43 43 43 42 43 43 43 42 42 42 42 43 42 42 42 41 41 41 40 40 40 39 39 40 40 40 40 39 39 39 39 39 38 38 38 38 37 37 38 38 38 38 37 36 36 36 37 37 36
44 43 43 43 42 42 42 41 41 42 42 43 43 42 42 42 42 43 43 43 42 42 41 41 41 41 41 41 41 41 40 40 40 40 40 41 39 40 39 39 38 38 38 37 37 37 36 36 36 36 36 37 36 36 36 35 35 34 35 36 35 36
44 42 42 42 42 41 41 41 42 41 42 43 43 42 42 42 42 42 42 42 42 42 42 41 41 41 41 40 41 40 40 40 40 40 40 39 38 38 37 37 36 36 36 36 35 35 35 35 35 35 35 35 34 34 34 33 34 33 34 34 34 35
43 42 42 41 41 41 41 41 41 41 42 42 42 42 42 43 42 43 42 42 42 42 42 41 41 41 41 41 41 41 40 40 39 40 39 38 37 37 37 36 36 35 35 35 35 34 34 34 34 34 33 33 33 33 33 33 33 32 32 32 33 33
43 42 41 41 41 41 41 41 42 42 42 42 42 42 42 43 42 42 42 42 42 42 41 41 41 41 42 41 41 39 39 39 38 38 37 36 36 35 35 35 34 34 34 33 33 33 33 33 33 32 33 32 32 32 32 32 32 32 32 31 32 32
42 41 42 42 42 42 42 41 42 42 42 42 42 43 43 43 43 42 42 42 42 41 41 41 42 41 41 40 40 38 38 37 37 36 35 35 35 34 34 34 34 32 33 32 32 32 32 32 31 31 31 32 32 31 31 31 31 31 31 31 31 30
42 42 42 42 42 42 42 42 42 42 43 43 43 43 43 43 43 42 42 42 41 41 41 41 41 41 40 39 38 37 37 36 35 35 34 34 33 33 32 32 32 32 31 31 31 31 30 31 30 30 30 30 30 30 30 30 30 30 30 30 30 30
42 42 42 42 42 43 42 42 42 42 43 42 42 43 43 43 42 42 42 42 41 41 41 41 40 39 38 37 37 36 35 34 33 33 32 32 31 31 31 30 30 30 29 29 29 29 29 28 29 29 29 29 29 29 29 29 29 29 30 30 29 30
43 42 42 42 42 43 42 42 43 42 43 42 42 43 43 42 42 42 41 41 41 41 40 39 38 38 37 36 35 35 34 33 32 31 30 30 29 29 29 28 28 29 28 28 27 27 27 27 28 28 28 28 28 29 28 28 28 28 28 28 29 29
43 42 42 42 42 42 42 42 43 43 43 44 43 43 43 43 42 42 41 41 41 41 39 37 37 35 34 34 33 32 31 30 30 29 28 28 28 27 27 26 26 26 26 26 25 25 26 26 26 27 26 26 27 27 27 27 26 26 26 26 27 28
43 43 42 42 42 42 42 42 42 43 42 42 43 43 43 43 42 41 41 41 41 39 37 36 35 34 33 33 32 31 30 29 28 27 26 25 25 25 25 24 24 24 24 24 24 24 24 24 25 22 21 23 25 25 26 25 25 25 25 25 25 26
43 43 42 42 42 42 42 42 43 43 43 43 43 43 43 42 41 41 41 40 40 37 36 35 34 33 32 32 31 27 27 27 25 24 22 22 22 21 21 22 23 23 23 22 22 22 23 23 23 20 22 23 24 24 24 24 24 25 24 25 25 24
43 43 42 42 42 43 43 42 42 42 42 43 43 43 43 41 41 41 41 41 38 36 35 34 33 32 31 28 25 24 23 22 21 21 20 20 19 20 20 20 21 21 22 21 21 21 21 22 21 20 21 22 23 24 24 23 22 23 24 24 24 25
43 43 43 43 43 42 43 43 42 42 43 42 43 43 40 40 40 40 39 38 36 36 35 34 32 29 26 26 24 22 20 19 19 18 17 17 19 18 18 20 19 19 20 19 19 19 20 21 20 19 20 21 22 23 23 23 23 22 22 23 24 23
43 43 43 43 43 43 44 44 43 44 44 44 43 41 40 39 39 39 38 36 35 35 35 32 29 27 25 23 21 20 19 18 19 19 19 18 17 17 17 17 16 17 17 18 17 18 19 19 18 19 20 21 21 22 23 22 22 22 22 22 22 22
42 42 42 43 43 44 44 43 44 44 43 43 41 41 38 38 38 38 38 35 35 34 30 30 28 26 23 20 19 19 18 18 18 16 17 17 17 16 15 16 15 14 13 13 14 15 15 17 17 18 19 20 21 22 22 22 21 21 20 21 21 21
41 41 41 42 42 43 43 43 44 42 41 41 40 38 38 36 36 36 36 34 33 31 31 28 26 24 21 20 18 18 18 17 16 15 17 15 16 16 15 15 14 12 11 12 11 12 12 16 17 17 18 19 20 21 21 20 19 19 19 19 21 21
41 42 41 41 42 41 41 42 41 41 38 37 37 36 35 35 34 35 34 32 32 29 29 28 25 23 20 19 17 16 17 16 15 15 15 13 15 15 14 13 12 12 11 10 10 9 11 13 15 16 17 18 20 20 19 19 18 18 18 19 20 21
40 40 41 40 40 41 41 41 39 39 35 34 34 33 33 32 33 34 32 32 30 30 28 27 24 21 19 17 16 16 17 17 17 14 14 13 13 13 13 12 11 10 10 9 9 9 8 9 13 15 17 17 19 19 18 18 18 17 17 18 20 21
39 38 39 39 38 39 39 37 36 35 34 33 32 32 30 31 33 33 31 32 31 29 26 24 22 20 18 16 16 15 15 14 14 14 12 12 12 12 11 10 10 9 9 8 7 8 9 9 11 14 15 17 18 19 18 18 17 16 17 18 18 21
36 36 37 38 39 37 35 34 34 32 33 32 31 30 29 32 33 35 34 32 29 26 23 21 19 18 16 15 15 13 14 14 12 10 10 10 12 12 12 10 10 7 8 8 7 7 8 9 10 11 14 16 18 19 19 19 17 16 17 18 18 18
38 38 38 39 38 33 33 32 32 31 32 31 29 28 31 34 35 33 31 29 24 22 19 19 17 15 14 15 13 13 11 12 12 11 9 8 10 10 9 6 6 5 5 7 7 7 7 8 8 9 14 16 18 19 19 18 18 18 18 18 19 19
37 37 37 37 34 31 30 31 30 31 32 29 28 30 34 34 33 30 27 22 21 19 16 15 15 14 12 11 11 10 9 10 10 9 7 10 10 5 5 5 6 8 8 9 8 8 7 9 10 10 13 16 18 19 20 20 20 21 20 19 20 20
36 36 38 35 31 30 29 29 29 29 28 27 30 33 34 31 28 26 23 20 17 15 13 12 10 9 8 7 8 8 9 8 5 5 5 5 5 4 4 5 6 7 8 9 11 11 10 10 11 13 14 16 18 20 21 22 22 23 22 20 19 20
37 37 37 33 29 27 27 28 28 28 26 28 34 32 27 24 23 21 19 16 15 13 11 9 8 7 7 6 7 6 7 7 6 5 6 6 7 9 8 11 10 9 8 8 11 11 12 12 13 14 16 17 19 20 21 22 23 24 22 22 21 22
37 36 35 33 27 27 25 27 28 26 25 30 30 25 22 20 18 17 16 14 13 11 9 7 7 6 6 5 6 6 7 5 3 6 7 5 7 9 10 12 10 9 10 9 9 11 13 14 15 16 18 19 19 20 21 22 23 23 24 22 23 24
32 32 32 32 28 26 24 25 27 26 28 32 27 23 19 17 15 15 15 14 11 10 8 6 5 5 4 4 6 7 10 9 6 9 11 9 10 9 9 10 10 9 8 8 10 11 12 13 14 15 16 18 19 20 21 22 23 23 24 24 23 23
28 28 29 30 28 24 24 23 24 28 31 27 24 20 18 15 15 15 15 12 12 9 6 6 8 6 3 2 5 7 8 9 9 9 9 10 10 9 9 9 7 8 9 9 10 11 12 13 14 15 16 17 19 20 20 20 21 23 23 23 21 20
28 29 29 29 32 26 23 22 22 24 25 22 21 17 15 14 15 16 15 12 11 10 6 8 6 6 7 4 4 6 7 7 7 8 9 10 11 10 10 9 9 9 10 10 11 12 12 12 14 15 16 18 18 19 20 21 21 21 21 19 19 17
27 28 29 30 32 28 23 22 22 22 22 19 16 15 14 15 14 16 16 13 11 10 8 9 9 8 10 7 4 7 9 8 7 7 8 8 9 11 11 10 11 10 10 10 10 10 10 12 13 16 19 20 21 21 20 20 21 21 20 19 20 14
28 28 28 30 31 28 24 22 21 20 20 17 14 14 15 15 15 14 14 12 11 10 8 8 8 7 9 8 7 4 3 5 9 9 8 8 9 11 13 12 10 11 12 11 11 12 11 12 15 19 21 22 22 22 22 23 24 23 21 20 19 14
26 26 26 27 28 27 24 23 21 19 17 16 13 13 15 15 16 16 15 11 11 10 8 7 8 6 7 7 7 7 7 7 8 12 13 13 12 13 14 16 17 17 17 13 11 14 18 19 20 21 21 21 21 21 22 23 23 22 19 19 15 11
24 24 25 27 26 24 24 22 21 19 16 14 12 12 14 14 16 16 16 13 11 8 7 8 7 6 5 7 6 6 7 8 9 10 12 14 15 16 16 17 18 18 19 20 19 18 17 19 20 20 20 20 20 21 22 22 21 18 18 17 14 9
26 26 25 26 25 23 22 21 20 17 13 12 11 10 11 12 13 15 15 13 9 8 6 6 7 6 6 4 4 4 5 7 8 11 13 12 13 14 15 15 16 17 18 19 19 20 19 19 19 19 19 19 20 21 21 20 17 16 16 13 10 7
27 26 25 23 22 21 20 19 18 14 12 9 9 9 10 10 11 13 14 11 8 8 8 7 7 7 7 7 6 6 5 6 7 8 9 10 10 9 10 12 14 14 14 15 16 16 17 17 17 18 18 18 19 20 19 16 13 14 12 10 7 6
23 23 21 19 19 17 16 16 13 9 7 6 7 7 8 8 8 10 7 4 5 9 8 8 8 7 7 6 5 4 3 4 4 4 3 4 6 8 9 9 10 10 10 10 11 12 14 15 16 17 17 17 19 18 15 14 11 9 8 7 5 5
19 19 17 15 15 14 13 11 4 4 4 4 5 5 5 6 7 8 8 5 4 6 7 7 6 7 6 5 4 4 3 4 3 3 3 3 2 2 2 3 5 5 6 8 10 12 13 14 15 15 15 16 17 14 13 8 8 7 6 5 5 5

ECMWFFLT1_sfc_temp_045.txt.gz
Temp
47 47 46 47 47 47 47 47 47 47 48 48 48 47 48 47 48 48 48 48 47 46 46 46 46 47 46 46 46 45 44 44 44 43 42 41 42 41 41 41 41 41 40 41 40 40 40 40 39 39 39 39 39 39 40 39 37 37 37 39 38 37
48 47 46 46 46 46 46 46 46 46 47 47 48 48 47 46 46 46 45 45 45 45 45 45 46 45 45 45 45 44 43 43 42 42 42 42 42 41 42 41 40 40 40 40 40 39 39 39 39 38 38 38 38 38 37 37 36 36 36 37 37 36
48 47 47 46 46 46 45 45 45 46 46 47 47 45 45 45 45 45 45 45 44 44 44 43 43 43 44 43 44 43 42 42 42 42 42 42 41 41 41 40 39 39 39 39 38 38 37 37 37 37 37 37 37 37 36 35 35 35 35 36 35 36
48 47 46 45 44 44 43 44 45 45 45 46 45 45 45 44 45 45 44 44 44 44 43 43 43 43 43 42 42 42 42 42 42 42 42 40 40 40 39 39 38 38 38 37 37 37 37 36 36 36 36 36 35 35 35 34 34 34 34 34 34 35
47 46 45 44 44 43 43 43 44 44 44 45 45 44 45 45 45 45 44 44 44 43 43 43 42 42 42 42 42 42 41 41 41 42 40 40 39 39 38 38 37 37 37 37 37 36 36 35 35 36 35 34 34 33 34 34 34 33 32 32 33 33
46 45 44 43 43 42 42 43 44 44 44 45 45 44 45 45 45 44 44 43 43 44 43 43 43 42 43 42 43 41 41 40 40 40 39 39 39 37 37 37 36 36 36 36 36 36 35 35 34 34 34 34 33 33 32 33 33 32 32 32 32 32
44 43 43 43 43 43 43 43 43 43 44 44 44 44 45 44 45 44 44 44 43 43 43 43 43 42 43 43 42 41 40 40 39 39 38 38 37 37 37 36 36 35 36 34 34 34 34 34 33 33 33 33 33 32 32 32 32 32 32 32 31 31
45 44 43 44 44 43 43 43 43 44 44 45 45 45 44 44 44 44 43 43 43 42 42 42 42 42 42 42 41 40 40 39 38 38 37 37 36 36 36 35 35 35 34 34 33 33 33 33 32 32 32 32 32 32 31 31 31 31 31 31 31 31
44 44 44 44 44 44 43 43 43 44 44 44 45 45 45 44 44 43 43 43 42 42 42 42 42 43 42 41 40 40 39 38 37 37 36 36 35 35 34 34 33 34 33 33 32 32 31 31 31 31 31 31 31 31 30 30 30 30 30 30 30 30
44 44 44 44 44 44 44 44 44 44 44 44 44 45 44 43 44 43 43 43 42 42 42 43 43 43 42 41 39 38 37 36 36 35 35 34 33 33 33 32 32 32 32 31 31 31 30 30 30 31 31 30 30 29 29 29 29 28 29 29 29 30
43 44 44 45 45 44 43 43 44 44 45 45 44 44 44 44 44 43 42 42 42 42 43 43 43 42 40 38 37 36 35 34 34 33 33 32 32 32 32 31 30 30 30 30 29 29 29 29 29 30 29 27 27 28 27 27 27 27 27 27 28 28
45 45 45 45 44 44 43 43 44 44 44 44 44 44 44 44 43 43 42 42 42 43 43 42 40 39 37 36 34 34 34 33 32 32 31 30 30 30 30 29 29 29 29 28 28 28 28 28 29 28 25 25 25 25 25 25 26 26 25 25 26 27
47 47 45 44 44 44 44 44 44 44 45 44 44 44 45 45 43 43 43 42 43 43 42 40 38 37 34 34 34 31 31 31 30 29 29 28 28 27 26 27 27 27 28 27 27 27 28 28 28 26 25 25 25 25 24 24 24 25 24 25 25 25
47 46 45 45 44 45 44 44 44 44 44 45 44 45 45 44 43 42 42 43 43 42 40 38 36 35 34 33 30 29 29 28 27 26 25 25 24 25 25 25 26 27 27 26 26 26 26 27 27 27 25 25 25 25 24 23 23 23 24 24 24 25
47 46 45 45 45 45 45 45 45 44 45 45 45 45 44 43 42 42 42 42 42 41 39 38 35 33 31 30 29 28 26 25 24 24 23 23 24 24 23 24 25 24 25 25 24 24 25 25 26 26 25 24 24 24 24 23 23 22 23 24 24 24
47 47 47 46 46 46 47 47 46 46 46 46 46 44 43 42 42 42 41 41 41 39 38 36 33 32 30 29 27 26 24 23 23 23 23 23 22 22 22 23 22 22 23 23 23 23 24 24 25 25 24 24 24 23 24 23 22 22 23 23 23 24
47 48 47 47 47 47 47 46 47 46 46 45 44 44 42 41 41 40 41 40 39 38 37 35 33 32 30 27 25 24 23 23 23 23 22 21 21 21 20 21 19 20 20 19 20 20 20 22 23 24 23 23 23 23 23 22 22 22 22 23 23 23
47 47 47 47 47 47 47 46 46 45 44 44 43 42 41 40 40 40 40 39 38 37 37 34 32 31 29 27 24 23 23 23 22 20 22 21 22 22 21 21 20 18 17 17 16 16 16 19 22 23 23 22 22 23 21 21 20 20 20 20 22 22
48 47 47 46 46 45 45 46 45 44 43 42 42 41 39 39 38 39 39 37 38 37 37 35 33 31 28 25 23 22 22 22 21 21 22 19 21 20 19 18 17 17 16 15 14 14 14 16 20 21 21 21 21 21 20 19 19 19 19 20 21 22
46 46 45 45 45 45 45 45 44 43 41 40 40 39 39 38 38 39 39 39 37 37 37 35 32 30 28 25 23 22 23 23 22 20 21 19 19 19 18 18 16 16 15 14 13 13 12 13 17 19 20 20 21 20 19 19 18 18 18 19 21 21
44 43 43 43 42 44 44 42 41 40 39 39 39 38 37 37 38 38 38 39 39 38 35 34 32 31 28 25 24 23 22 21 21 20 19 19 19 18 18 17 15 14 13 12 11 13 12 11 13 17 19 19 20 20 19 18 17 17 18 18 19 21
41 41 41 41 42 42 42 40 40 37 38 38 38 36 35 38 38 40 40 40 39 37 34 33 30 29 27 25 24 23 22 21 19 17 16 16 18 17 17 15 14 11 12 12 11 9 11 11 12 14 18 18 19 20 19 19 17 16 17 18 18 18
41 41 40 42 42 40 39 38 37 36 36 37 36 35 37 38 39 39 39 39 37 35 32 31 29 27 26 26 24 22 20 20 19 16 14 14 16 16 15 12 11 9 9 11 11 10 10 11 10 11 16 18 19 20 20 18 18 18 17 18 18 19
40 41 41 42 40 37 37 36 34 36 37 35 34 35 38 39 39 39 38 35 34 32 29 27 27 26 25 23 21 19 17 17 17 15 13 15 14 11 10 9 9 10 10 11 11 10 9 11 13 11 15 18 19 20 21 19 19 20 19 18 19 20
40 40 41 40 37 36 35 34 33 34 33 33 35 37 38 38 38 37 35 33 31 28 26 24 23 22 21 19 19 17 16 14 12 12 12 12 11 9 8 8 9 10 10 12 13 13 12 12 13 16 14 17 19 20 21 22 21 23 22 20 19 19
40 40 40 38 35 34 33 32 31 32 32 33 38 37 36 35 35 33 30 28 27 25 23 21 20 19 18 17 16 16 15 13 11 10 11 10 11 11 9 11 10 10 11 11 14 15 15 14 14 16 18 18 20 21 21 22 23 24 22 21 20 21
40 40 38 37 32 33 31 32 31 31 30 35 36 34 33 31 29 28 27 26 24 23 21 19 18 16 15 14 14 14 15 11 9 10 11 9 11 13 13 15 15 13 14 15 15 16 16 16 16 16 18 20 20 21 22 22 23 24 24 22 22 23
36 35 36 36 32 32 30 30 31 30 32 35 34 33 31 27 25 24 24 24 23 21 19 16 14 13 12 12 14 14 16 13 11 13 13 11 11 13 14 15 16 15 14 14 15 15 16 16 16 16 16 18 19 20 21 22 23 23 24 24 23 25
32 32 32 34 33 29 29 28 30 31 33 33 33 30 26 24 24 23 23 22 22 19 16 15 15 13 10 10 13 14 15 15 13 14 14 13 13 14 14 15 15 14 14 13 14 15 15 14 15 16 16 17 18 18 20 20 21 23 23 23 23 23
31 31 32 32 36 32 29 27 27 28 29 29 27 25 23 22 22 23 23 21 20 18 14 14 12 12 11 10 10 12 13 14 14 14 15 15 16 15 14 14 14 14 15 15 15 14 14 14 15 15 15 17 18 19 20 20 20 20 21 21 21 20
30 31 32 33 35 33 29 27 27 27 27 27 22 21 22 22 20 21 21 20 18 17 14 14 14 14 14 10 9 12 14 13 13 14 15 16 18 19 17 16 16 16 16 16 16 14 14 14 14 15 19 19 21 20 19 19 20 20 21 22 22 15
31 30 31 32 33 31 30 28 27 26 26 25 21 20 21 21 21 19 20 19 18 17 14 14 14 13 14 12 10 10 11 14 17 16 14 14 17 20 21 21 17 17 16 15 15 16 15 15 17 21 22 22 23 23 24 23 23 23 23 24 23 16
29 28 28 30 30 30 29 29 27 25 23 23 21 19 19 19 21 20 20 19 18 18 16 14 15 13 14 14 12 11 10 10 13 17 19 18 17 18 19 20 21 21 20 16 13 16 20 20 20 21 22 22 23 24 23 23 23 24 24 22 16 14
27 27 27 29 27 27 27 26 25 24 22 21 19 19 19 19 20 22 22 21 19 18 16 16 14 13 13 13 13 12 11 12 12 13 17 19 19 19 19 19 20 20 21 21 19 16 15 19 21 22 22 23 23 23 22 22 23 24 21 20 18 11
29 29 27 26 26 25 25 25 24 22 19 18 17 17 17 17 18 20 21 20 19 17 15 14 13 13 12 11 11 11 12 12 13 14 14 16 20 20 20 20 20 21 21 21 22 22 21 21 21 21 22 23 22 22 22 22 23 21 19 18 14 10
29 28 27 25 24 24 23 22 21 18 16 15 15 15 15 16 16 17 19 20 18 16 14 13 13 12 12 11 11 11 11 11 13 14 16 14 12 13 16 19 20 20 20 20 21 21 21 21 22 22 22 22 21 21 21 21 19 18 18 15 10 9
26 25 24 23 22 20 18 18 13 10 11 12 12 13 13 13 14 14 14 13 14 15 14 13 14 12 12 11 10 10 10 10 11 11 11 13 13 12 11 11 13 17 19 17 17 18 19 20 20 20 19 20 20 20 20 21 14 13 12 11 7 7
22 22 21 19 18 17 16 13 5 7 7 8 9 10 10 11 11 12 15 13 12 14 15 14 13 13 12 11 11 10 10 9 9 8 8 9 8 8 9 10 11 11 14 16 16 16 17 17 18 18 19 19 20 20 20 13 11 11 10 9 7 5

ECMWFFLT1_sfc_temp_048.txt.gz
Temp
42 41 40 40 40 40 40 41 41 41 41 41 42 41 41 41 41 40 40 40 41 40 39 39 39 39 38 38 38 38 37 36 35 34 34 34 33 34 31 30 30 30 29 29 29 29 29 28 28 28 28 28 29 28 29 27 27 26 26 27 28 29
42 41 40 39 40 40 40 41 40 41 41 41 41 40 39 38 39 38 38 38 39 38 38 38 38 38 37 37 37 37 35 35 35 34 33 33 33 31 30 29 29 29 29 28 29 28 28 27 28 28 28 27 27 27 28 26 26 25 25 26 27 29
42 40 39 39 38 39 40 40 40 40 40 41 40 40 38 37 37 37 36 37 36 36 36 36 36 36 36 35 35 35 34 34 34 33 33 32 31 31 30 29 29 29 28 28 28 27 27 27 27 28 27 26 26 26 26 26 26 25 25 25 25 25
41 39 38 38 38 38 38 39 38 38 38 39 38 37 37 36 36 36 35 36 36 35 35 35 35 35 34 34 34 34 33 33 33 32 32 31 30 30 30 29 29 28 28 27 27 27 27 27 28 27 26 26 26 25 28 28 25 25 24 24 25 24
41 39 39 38 38 37 37 37 38 37 37 36 36 37 36 36 36 36 36 36 35 35 35 35 34 34 33 33 33 33 32 32 32 32 31 31 30 29 29 29 28 27 27 27 27 27 27 28 27 28 26 27 26 26 25 26 25 25 24 24 24 24
39 38 38 37 37 36 36 36 36 36 36 36 36 36 36 36 35 36 35 35 35 34 34 34 34 33 33 33 32 32 32 32 32 32 31 30 29 29 28 28 27 28 27 28 27 26 27 28 27 28 27 27 26 25 25 25 25 24 24 24 24 24
39 39 38 37 37 36 36 36 36 36 36 36 36 36 36 36 35 36 35 35 35 34 34 33 34 33 33 33 32 32 32 31 31 31 31 30 29 29 29 28 27 27 27 28 27 27 26 26 26 27 27 27 26 26 26 25 25 24 24 24 23 27
40 38 38 38 37 37 36 36 36 36 36 36 36 36 36 35 35 36 35 35 35 34 34 34 34 33 33 33 32 32 32 32 31 31 31 30 29 29 28 28 27 26 26 26 26 26 26 26 26 25 25 26 26 26 25 24 24 24 24 23 24 24
39 39 38 38 37 37 37 37 36 37 36 36 36 36 36 36 36 35 35 35 35 34 34 34 34 34 33 33 33 32 32 31 30 30 30 30 30 29 28 27 27 26 26 26 26 26 26 26 26 25 25 25 25 24 24 23 23 23 23 24 23 23
40 38 38 38 38 37 37 37 37 37 37 36 36 36 36 36 36 35 35 35 34 34 34 34 34 34 34 34 34 34 32 31 30 30 31 31 30 29 28 27 27 25 25 25 25 25 24 24 24 24 24 24 23 24 23 23 23 22 22 22 22 23
40 39 38 38 38 37 37 36 36 37 36 36 37 36 36 36 36 35 35 35 35 35 35 36 36 36 35 34 34 33 32 31 31 31 31 30 29 29 28 26 26 25 25 24 24 24 24 25 24 25 23 21 22 22 21 21 21 21 20 21 21 22
41 40 39 38 38 37 37 37 37 37 37 37 37 37 36 36 36 36 35 35 35 35 36 36 36 35 33 33 33 33 32 31 30 29 29 29 29 28 27 25 25 25 24 24 23 23 24 24 25 27 29 27 20 20 21 21 19 20 20 19 19 20
41 40 39 38 38 37 38 38 38 37 37 37 37 37 37 37 36 36 36 35 35 36 37 36 34 33 33 33 32 29 28 28 28 27 26 26 25 25 24 24 24 23 23 23 22 22 23 24 24 29 29 28 28 23 21 20 19 20 19 18 18 18
40 40 39 39 39 38 38 38 38 37 38 39 38 38 37 37 36 36 35 35 36 36 36 35 33 32 32 30 28 26 26 26 25 25 24 23 23 23 21 22 22 22 22 22 21 20 21 21 28 30 29 29 28 26 23 22 22 22 22 21 20 19
42 41 40 40 40 39 39 39 38 38 39 39 39 38 37 37 36 36 35 35 35 35 34 32 31 31 29 27 26 25 24 23 23 22 22 22 22 21 20 22 21 20 20 20 20 19 19 20 28 29 29 28 27 27 25 23 22 21 21 22 22 22
41 41 41 41 40 40 39 39 39 39 39 39 38 37 37 36 35 36 35 35 35 34 33 32 30 29 28 26 25 24 23 22 22 22 22 22 21 20 19 17 18 19 19 19 18 18 18 18 25 28 29 28 27 26 25 23 22 21 21 21 22 22
40 40 39 40 40 39 39 38 39 39 38 39 38 38 37 36 36 35 35 34 34 33 31 31 29 28 27 25 24 23 22 22 21 22 22 21 21 19 17 18 17 17 16 15 14 16 16 18 25 27 28 27 26 26 25 22 22 21 21 22 22 21
40 40 40 39 39 39 40 40 40 39 39 39 39 38 37 36 35 34 35 34 33 32 32 30 29 28 26 25 23 22 23 22 22 21 20 18 17 14 15 14 14 15 15 14 12 13 13 15 24 26 27 27 26 25 22 21 20 19 20 19 19 19
40 39 39 39 40 40 40 40 40 39 38 38 38 37 36 34 34 34 34 34 33 32 32 31 29 28 26 25 23 22 22 22 21 19 17 16 17 17 16 15 15 14 13 12 11 11 12 12 19 24 26 26 26 24 20 19 18 17 16 17 19 19
38 38 40 39 39 40 40 39 39 38 37 36 35 34 33 33 33 34 33 33 32 32 32 31 29 28 26 24 23 23 23 21 19 18 18 18 16 16 15 14 13 12 12 11 11 11 10 10 16 23 24 25 25 23 19 18 17 16 17 17 19 19
39 38 38 38 38 37 37 37 37 36 35 34 33 33 32 33 34 33 33 34 34 34 33 31 30 29 27 25 25 23 22 20 20 19 17 16 16 15 14 13 12 10 9 10 9 14 12 9 13 20 22 24 24 23 19 18 16 15 15 15 16 19
36 35 36 36 36 35 36 35 36 34 34 33 32 32 32 33 34 35 35 35 34 32 31 30 29 29 27 26 25 22 22 20 17 16 16 15 15 13 12 11 11 10 9 9 8 9 11 10 8 12 20 22 23 24 19 17 15 14 15 16 17 16
36 36 35 34 34 34 34 35 34 33 32 31 31 31 34 35 35 34 33 32 31 30 30 30 29 28 28 27 25 23 20 19 19 16 15 14 13 12 10 10 9 8 7 8 8 7 7 9 7 9 19 22 24 24 22 17 16 16 16 15 16 16
33 33 32 32 34 33 33 33 33 31 30 30 31 33 35 34 32 31 30 30 30 29 28 28 28 28 28 24 22 20 19 18 17 16 14 13 12 11 10 8 8 7 6 6 7 7 6 9 13 7 15 21 23 24 24 20 18 18 16 16 15 16
33 33 33 32 31 31 32 31 31 29 29 30 33 34 31 30 30 29 29 28 28 28 27 26 26 25 24 22 22 21 19 16 15 13 12 12 11 10 9 8 7 6 6 6 7 8 7 7 9 17 12 18 22 24 24 24 21 22 20 16 15 17
32 32 30 29 29 28 30 31 30 29 29 31 34 28 26 27 27 27 27 27 27 26 25 24 23 23 22 21 20 19 17 14 13 11 11 11 11 10 8 7 6 6 6 7 8 8 9 9 8 13 19 17 21 23 24 24 25 24 21 20 19 20
32 30 27 25 25 25 27 28 29 28 28 31 27 28 28 27 26 27 27 26 25 24 23 20 20 20 19 18 19 18 17 13 11 11 9 9 10 10 9 9 7 7 8 8 8 9 10 10 9 9 15 21 21 23 24 25 25 25 25 22 21 22
27 27 26 24 23 25 24 25 27 28 29 27 25 24 25 24 24 25 26 24 23 22 19 18 15 15 15 15 17 19 18 16 12 13 10 9 10 10 10 10 9 8 8 9 10 10 10 10 9 10 11 16 20 21 23 24 24 24 24 24 23 24
27 26 24 24 22 23 23 22 25 28 26 23 24 24 22 22 24 24 21 21 20 17 17 19 17 15 12 12 12 13 14 14 13 12 11 10 10 10 10 11 11 11 10 10 10 10 10 10 10 10 11 12 13 14 17 19 20 23 23 22 21 23
25 24 23 27 25 23 22 22 25 26 24 21 21 20 21 21 22 23 22 20 19 18 16 17 15 14 12 11 12 13 12 13 13 13 13 12 12 11 11 11 12 12 12 12 11 10 8 9 10 10 11 12 12 12 13 14 15 16 17 18 19 19
25 26 25 28 25 24 22 22 23 21 21 21 14 16 19 20 17 17 15 14 15 17 14 14 14 13 12 10 9 11 14 14 13 14 15 15 12 14 15 14 14 15 15 14 12 11 10 10 10 12 17 15 18 14 13 13 15 16 17 20 22 19
25 25 25 26 23 21 21 20 20 18 18 16 13 14 15 16 15 13 13 13 14 12 11 11 11 10 11 10 9 8 8 14 19 16 12 11 19 23 24 22 16 16 14 14 14 14 13 13 13 19 22 22 23 23 22 21 21 22 20 22 24 21
22 21 22 22 22 21 20 19 18 17 15 18 17 17 17 16 17 15 15 16 15 15 13 10 10 10 9 10 8 7 8 6 11 21 23 22 20 22 24 26 26 25 23 17 13 16 23 22 22 23 24 24 24 25 25 25 25 25 25 25 22 17
21 21 22 21 20 20 20 19 18 15 14 15 15 15 16 15 17 18 17 16 14 15 14 11 11 10 9 9 8 7 7 8 7 9 18 22 22 23 23 24 25 25 25 24 21 15 14 21 24 24 24 24 25 25 25 25 26 26 26 25 25 14
20 20 19 20 19 18 18 18 18 14 12 13 13 13 14 13 15 17 15 14 15 13 13 12 10 10 10 9 8 7 8 8 8 9 9 15 22 23 23 23 24 24 24 25 24 23 19 19 22 23 24 24 24 25 25 25 26 26 26 25 20 13
19 19 18 17 17 16 15 14 9 9 9 8 9 10 12 12 13 13 11 12 11 12 11 11 11 10 9 9 9 8 8 8 9 9 10 10 11 16 20 23 24 24 24 24 24 24 24 23 23 23 24 24 24 25 25 25 23 25 25 23 16 13
18 18 18 17 14 13 11 7 2 3 4 8 7 8 8 8 9 8 10 13 12 10 10 9 10 9 7 7 7 7 7 8 7 9 9 10 10 11 11 12 15 19 23 21 22 23 24 24 25 25 25 25 25 25 25 25 20 18 17 18 13 11
15 12 10 10 9 8 7 1 -0 1 1 2 4 5 6 7 7 7 9 9 9 8 8 6 7 5 6 5 5 5 5 5 5 6 6 7 7 7 8 9 10 11 15 19 20 21 22 22 22 22 23 23 24 24 24 17 15 14 14 12 11 9